GFSCGP_925_thetae_048.txt.gz
Theta_e
318 317 317 317 316 316 316 317 317 316 316 322 322 320 317 324 331 330 333 332 332 332 329 330 329 327 325 323 324 326 327 328 325 320 322 325 328 328 325 322 321 321 320 318
318 319 317 317 319 319 318 318 317 317 316 319 319 319 316 320 329 330 332 332 332 331 329 330 330 328 327 325 324 326 327 328 326 321 323 326 327 325 321 320 320 320 320 317
318 317 318 320 319 319 318 319 319 319 316 317 318 317 316 314 321 325 328 330 330 331 330 329 328 328 328 326 325 327 328 328 327 323 324 325 324 321 319 319 319 319 317 315
318 317 320 320 320 318 320 317 318 318 318 318 316 318 314 313 318 322 327 326 327 327 329 329 328 327 327 327 326 327 327 327 327 324 324 325 324 319 318 318 318 317 314 313
317 319 320 320 319 318 318 318 318 318 316 317 316 315 314 313 314 316 322 327 325 324 326 328 328 327 326 325 326 327 326 325 324 325 326 325 322 319 319 318 316 314 313 313
316 317 317 317 318 318 318 318 316 316 316 319 318 315 317 315 315 315 315 322 325 322 323 325 328 325 325 324 325 325 325 325 325 324 324 325 323 320 319 317 314 313 313 310
318 318 319 320 320 318 317 317 319 318 320 321 318 320 318 316 315 314 314 318 322 320 320 322 321 321 322 323 323 324 325 324 324 324 325 325 324 321 320 317 314 313 312 309
318 317 318 318 318 318 319 317 319 321 320 318 319 321 318 317 317 315 312 311 317 316 318 319 320 321 321 322 323 324 324 324 323 324 324 324 323 321 321 319 316 314 311 308
318 318 319 319 319 317 319 319 316 319 317 318 318 317 313 316 320 319 317 315 317 316 316 319 319 321 322 323 324 324 325 324 324 324 324 324 323 321 322 318 315 313 309 305
315 317 319 319 319 318 318 315 318 316 321 322 317 317 316 317 318 321 320 320 318 316 318 318 319 323 323 324 324 324 325 325 325 325 325 325 325 323 321 318 314 312 310 308
315 314 315 319 319 319 318 317 315 315 314 318 319 317 310 314 317 318 319 318 318 320 319 320 321 325 325 325 325 325 325 325 326 326 326 326 325 322 318 317 315 312 307 302
315 313 313 316 317 317 315 317 315 317 317 315 314 316 312 310 311 314 316 318 319 321 320 320 321 323 325 326 326 325 325 325 326 326 326 322 319 315 313 312 309 307 304 302
316 314 314 314 315 317 319 317 316 314 312 316 314 316 311 310 309 311 314 316 318 321 320 320 319 320 322 324 324 325 326 326 326 324 321 315 313 311 308 306 305 302 302 302
315 315 314 315 314 315 319 317 317 316 315 316 314 315 314 313 311 310 309 310 313 317 320 318 318 318 321 322 323 322 322 322 320 316 311 309 307 306 305 304 302 302 300 300
315 316 315 314 314 316 317 318 315 316 315 317 317 314 313 312 309 308 307 312 314 318 319 318 317 315 317 318 319 317 316 315 312 310 308 306 305 304 302 301 299 300 300 298
313 316 313 317 315 315 318 316 316 315 315 314 314 313 310 310 309 308 309 311 311 312 311 311 312 313 314 316 315 313 313 311 309 306 305 303 302 301 300 299 296 295 296 297
314 314 312 316 312 314 313 314 314 314 313 314 315 313 309 310 309 308 308 308 309 307 305 305 304 305 308 311 311 307 306 305 304 302 300 299 298 296 295 296 298 299 299 299
313 312 309 311 310 313 314 312 312 313 312 310 310 310 308 307 307 304 303 307 303 301 300 298 299 300 301 302 303 303 302 301 299 297 296 296 297 298 299 300 300 298 297 297
313 310 311 313 313 313 314 311 311 311 310 309 308 309 309 308 308 305 301 299 298 297 296 295 295 296 296 297 297 298 296 296 296 296 297 299 299 299 299 298 298 297 296 294
311 309 312 307 312 313 312 312 308 309 311 309 309 310 310 309 308 308 299 298 295 295 295 294 294 295 296 296 297 296 295 296 297 298 298 299 300 299 296 295 295 293 293 292
312 309 310 303 309 312 311 310 308 312 311 308 309 309 308 309 305 300 297 296 295 294 294 294 294 294 294 295 297 297 297 297 298 299 297 295 294 293 293 292 292 291 291 291
318 314 309 306 307 319 308 309 311 309 309 308 308 307 307 301 299 297 296 295 294 294 294 294 294 295 296 297 297 296 295 294 293 293 292 292 291 291 291 290 290 290 289 289
317 315 315 314 315 311 308 309 309 307 308 308 308 306 303 300 299 297 295 294 293 292 293 293 293 293 293 293 293 292 292 292 291 291 291 291 290 290 290 290 290 289 289 289
312 310 313 313 313 312 313 310 309 310 309 308 306 303 302 300 298 296 294 293 292 292 293 293 292 291 290 290 291 290 291 291 291 290 289 288 288 287 286 285 285 285 285 286
312 312 312 312 313 312 310 306 305 304 303 302 301 300 299 298 296 295 293 293 293 293 293 292 291 289 289 289 289 289 289 289 288 286 285 284 283 282 282 282 282 282 283 283
311 313 313 315 311 311 310 304 302 303 301 300 299 297 297 296 295 294 293 293 292 291 291 289 289 288 287 286 285 285 285 285 284 283 282 281 280 280 280 281 280 280 280 281

GFSCGP_925_thetae_051.txt.gz
Theta_e
319 321 321 320 318 317 317 319 318 317 320 320 322 323 322 334 334 334 332 331 332 331 329 325 324 324 323 323 324 325 327 327 328 325 322 320 321 321 324 326 324 323 323 321
321 323 319 317 318 319 319 320 320 318 317 319 320 321 319 330 335 333 333 331 331 331 331 328 326 325 324 323 324 324 326 327 327 326 321 321 320 321 325 325 324 322 320 320
321 319 317 320 320 320 319 320 319 319 318 317 319 320 319 318 328 332 331 332 331 332 332 331 329 327 326 324 324 324 325 326 327 325 321 320 322 324 324 322 320 319 318 318
320 317 319 321 321 319 321 318 318 319 320 321 316 322 317 317 320 325 333 332 333 332 332 332 331 330 329 327 325 324 325 325 326 326 322 321 323 323 322 320 319 319 317 317
320 319 320 321 321 319 321 317 319 319 320 320 318 319 320 315 316 319 324 331 331 330 331 332 331 331 330 328 326 325 324 325 326 326 324 322 323 323 321 321 319 317 316 314
317 316 318 320 318 318 318 319 317 318 320 323 319 319 321 319 318 317 317 322 328 329 328 330 330 330 329 328 327 326 325 325 325 325 324 324 322 322 321 319 317 315 315 313
318 319 318 318 320 318 318 319 323 324 324 325 320 321 323 320 318 318 319 317 322 328 328 328 329 329 328 326 325 325 325 325 325 324 324 324 324 321 322 319 318 315 312 311
318 318 319 319 320 321 320 320 325 323 324 321 319 322 320 318 317 319 318 315 315 325 326 326 327 328 328 326 325 325 325 326 325 324 324 324 324 321 320 320 320 316 313 312
319 318 316 318 319 319 320 322 318 321 319 325 321 319 318 317 318 321 321 318 317 319 322 324 324 325 326 325 325 325 325 325 324 324 324 324 323 322 320 320 320 318 313 311
319 319 319 319 319 318 319 318 322 320 324 324 319 319 319 318 320 318 321 322 321 319 319 319 321 322 323 324 324 325 325 325 325 324 324 323 321 321 320 321 320 317 312 310
316 318 316 319 321 321 320 320 317 318 319 322 322 321 317 317 318 319 319 321 321 323 321 321 321 322 323 323 324 324 325 325 325 325 324 323 323 322 321 320 317 314 311 306
317 319 319 320 316 316 318 321 320 325 321 319 320 320 315 315 313 314 318 319 321 323 323 322 323 324 324 324 324 325 325 325 325 324 325 324 323 321 317 315 314 310 307 304
317 316 318 317 317 318 320 318 317 316 317 320 326 322 313 313 314 312 314 316 320 322 324 324 324 324 325 325 325 325 324 325 324 323 322 320 317 313 311 310 310 309 305 303
316 316 319 319 318 318 321 319 318 320 323 322 320 320 319 318 315 315 313 311 312 317 322 323 323 324 324 324 324 324 322 321 321 319 315 311 308 308 308 307 306 304 303 301
318 319 316 314 313 316 319 319 319 319 320 323 321 317 318 317 316 313 310 314 316 318 318 319 320 321 321 322 320 317 317 317 317 314 310 308 306 305 303 302 301 300 300 299
315 319 316 317 315 315 318 317 317 318 316 316 316 316 315 312 310 311 313 316 316 315 314 314 314 315 317 316 314 311 309 308 308 307 304 303 303 301 300 299 298 297 296 296
316 317 317 319 314 315 319 317 318 317 316 319 319 319 312 312 312 312 312 313 312 310 309 309 308 308 308 308 307 306 304 304 302 301 299 298 298 297 296 297 297 298 298 297
316 316 315 318 313 322 318 313 314 317 315 314 313 313 312 312 309 307 307 309 306 305 304 303 303 302 302 302 302 301 300 299 299 298 297 297 298 299 299 300 300 299 298 298
314 314 316 321 320 317 315 313 315 316 317 313 314 311 310 309 309 307 302 302 302 301 299 298 298 298 299 299 299 299 298 298 298 298 299 299 299 299 299 298 297 296 295 296
310 312 321 313 320 323 319 313 310 311 317 312 311 312 311 311 317 314 302 300 299 298 297 297 297 297 297 297 298 298 298 298 298 298 298 299 298 296 295 294 293 293 292 291
315 314 318 314 321 318 313 311 310 319 320 312 311 312 313 313 311 306 300 298 297 296 296 296 296 297 297 297 298 298 298 299 298 295 294 293 293 292 291 291 290 290 290 289
320 319 318 314 319 322 311 309 316 318 310 311 311 312 312 305 301 300 299 297 296 296 296 296 296 296 296 297 297 295 294 293 292 291 291 290 290 290 290 290 289 289 289 288
321 319 321 320 322 317 310 315 311 310 312 310 312 309 305 303 301 299 298 296 296 295 295 295 294 293 293 293 293 292 291 291 290 290 289 288 288 287 286 286 285 285 284 284
314 313 318 318 317 314 312 312 311 310 311 309 310 307 304 303 300 298 296 295 295 295 294 293 292 292 291 290 290 289 290 290 289 287 286 285 284 283 283 283 283 283 283 282
316 315 315 315 314 314 314 312 311 309 308 306 306 305 304 301 298 297 296 295 294 293 292 292 291 290 289 287 286 286 286 286 286 285 283 282 282 281 281 281 281 281 281 280
313 315 317 319 316 317 316 313 307 307 307 305 303 301 300 299 297 296 295 294 293 292 291 291 289 287 285 284 284 283 283 282 282 282 281 280 280 280 280 280 280 279 278 278

GFSCGP_925_thetae_054.txt.gz
Theta_e
322 321 321 319 320 320 321 321 320 322 323 322 322 323 323 332 334 332 334 333 332 333 330 327 327 325 324 323 324 324 324 325 327 326 325 323 321 322 324 326 327 325 325 324
323 321 321 321 321 322 322 321 320 321 321 321 322 322 323 329 333 333 333 333 332 333 331 327 327 325 324 323 324 324 325 326 327 326 325 323 321 322 324 325 323 323 322 321
321 322 321 321 322 323 323 322 321 321 321 321 322 321 323 324 330 332 333 332 330 331 333 331 327 327 326 324 325 326 327 328 329 327 326 323 323 324 324 324 324 324 321 319
321 321 321 322 322 322 321 321 321 322 322 322 321 323 321 323 325 329 332 334 333 329 331 332 331 328 326 325 324 325 325 327 329 329 326 323 322 322 323 324 323 321 320 318
321 322 322 323 322 322 321 321 322 322 322 323 322 322 322 320 321 323 326 331 333 333 330 332 333 331 330 327 326 326 326 326 328 329 329 326 323 322 325 326 324 321 319 319
320 320 321 321 321 322 321 322 322 323 323 324 322 322 322 321 321 321 321 324 329 332 332 330 331 332 333 332 331 330 328 327 328 328 329 329 327 326 327 325 324 323 321 318
320 320 320 320 321 322 322 323 325 326 326 326 322 322 322 321 322 322 323 324 324 328 332 332 331 332 332 333 333 332 331 329 328 329 329 329 329 328 327 326 324 323 320 315
321 320 320 321 321 322 323 323 325 326 326 324 322 323 322 322 322 321 324 323 322 323 327 331 331 331 332 332 333 332 331 331 330 329 329 329 328 328 327 325 323 323 318 316
320 318 319 321 321 321 323 323 322 324 325 327 322 321 320 321 321 322 323 324 322 322 326 328 330 330 332 332 332 332 332 331 331 329 330 329 327 326 326 324 323 320 317 315
319 319 321 322 322 321 322 322 324 324 326 325 322 321 319 320 318 320 321 322 325 324 323 324 326 328 330 331 331 332 331 331 331 330 329 328 327 326 325 323 322 318 319 316
319 320 323 323 324 323 323 323 322 323 323 324 322 321 321 320 319 320 322 323 324 326 325 325 325 324 326 328 329 330 330 330 330 330 329 328 328 327 324 321 320 319 318 315
319 320 321 321 320 321 323 323 323 325 325 324 326 323 319 320 320 320 321 322 325 327 328 327 327 326 326 327 327 328 328 329 329 329 329 328 325 322 320 319 316 315 314 311
320 320 321 320 320 321 321 321 321 322 322 322 329 323 320 319 319 319 319 321 323 326 328 328 328 328 328 328 328 328 328 328 328 328 326 320 317 316 314 313 313 312 309 306
319 319 320 321 319 319 321 321 321 322 324 321 322 320 320 321 321 321 319 317 318 323 327 329 329 329 329 329 329 329 327 324 321 319 317 313 312 312 310 309 308 305 304 303
320 320 320 318 317 317 317 318 319 320 321 321 321 320 320 320 321 321 319 317 318 319 324 327 329 330 329 328 326 325 322 318 315 312 311 309 308 306 305 306 305 303 301 301
320 320 321 320 319 318 318 318 318 319 319 321 321 321 321 321 319 318 318 320 321 321 322 322 324 325 324 323 320 318 317 316 312 308 306 304 304 302 302 302 301 299 299 299
322 321 321 321 320 320 322 321 320 320 321 322 321 321 321 321 320 319 319 321 321 319 318 318 319 319 318 316 315 313 312 311 309 305 303 302 301 300 300 299 300 299 299 299
323 323 323 322 320 330 320 319 320 320 321 321 321 320 319 319 318 316 317 319 317 315 314 314 314 313 312 311 310 309 308 306 304 302 301 300 300 301 301 300 300 299 299 299
322 323 324 331 324 321 318 317 319 321 321 320 320 320 319 316 314 314 311 314 313 312 310 310 309 309 309 308 307 306 305 304 302 302 301 301 301 301 300 300 300 299 299 298
318 320 326 321 325 332 321 320 319 318 323 319 318 318 317 315 320 319 310 308 307 306 306 307 306 306 306 306 305 305 304 304 303 302 301 301 300 298 298 298 297 296 295 293
321 321 327 326 328 324 321 318 316 321 323 320 319 318 318 318 318 315 309 307 306 305 305 305 305 305 304 304 304 304 303 302 301 299 297 295 294 295 294 294 293 293 293 293
323 325 327 325 331 330 317 315 320 322 321 320 319 319 318 316 312 309 308 306 305 304 303 304 304 303 303 303 303 302 300 298 297 296 295 294 293 292 292 292 291 291 290 289
324 322 325 323 324 322 318 320 318 320 320 318 319 318 317 312 310 308 306 305 304 303 303 303 302 301 300 300 299 298 296 295 294 293 292 291 290 289 288 288 287 287 286 286
318 316 322 321 321 320 320 318 317 316 317 316 317 316 314 312 309 307 305 304 303 302 302 300 299 298 296 296 295 294 293 292 292 291 289 288 286 286 285 285 285 285 285 284
319 318 320 322 321 319 318 319 318 316 314 314 315 314 313 310 308 306 304 303 302 301 299 299 297 295 293 291 291 290 291 290 289 287 286 285 285 284 284 283 283 282 282 280
318 320 323 324 321 322 322 320 319 317 315 314 313 312 311 309 307 305 303 301 300 298 297 297 295 292 289 288 287 287 287 287 286 285 284 283 284 283 283 283 283 280 278 277

GFSCGP_925_thetae_057.txt.gz
Theta_e
320 321 321 320 321 321 320 321 321 325 326 325 323 322 324 329 331 331 333 332 333 334 330 328 326 324 323 322 322 322 321 322 322 322 322 322 321 321 322 322 326 329 327 328
322 322 321 322 321 320 320 321 321 321 322 322 322 323 323 326 331 330 332 334 331 332 331 329 327 326 325 324 322 322 321 321 322 321 321 321 321 320 322 323 325 328 328 327
322 322 321 322 321 322 322 322 321 321 323 322 322 322 323 323 329 330 330 332 331 332 332 330 328 327 326 325 324 323 324 324 324 324 323 323 321 320 321 323 325 327 325 324
321 321 321 321 322 322 323 321 321 322 322 322 324 324 325 323 326 329 330 331 331 330 332 331 329 328 327 325 326 325 325 325 326 327 326 325 323 322 321 324 325 326 323 322
320 320 322 322 322 322 322 322 322 322 322 323 324 322 324 322 321 324 328 330 330 329 331 331 330 329 328 327 326 326 327 327 328 328 327 326 325 323 323 324 325 326 323 322
320 321 321 321 322 322 321 322 322 323 324 325 323 324 324 325 321 322 322 327 329 331 329 331 330 329 329 328 328 327 327 327 327 327 329 328 327 326 323 324 329 326 324 322
320 321 321 321 322 322 322 323 326 329 326 326 323 323 323 324 322 322 322 323 326 329 331 329 331 332 331 330 329 329 328 328 328 328 329 329 329 329 328 327 329 327 325 324
321 321 321 321 321 323 324 323 327 330 330 327 325 323 323 322 321 321 322 324 325 326 329 331 330 330 332 332 333 332 331 331 329 329 330 330 331 331 331 329 329 328 327 325
321 321 320 320 320 320 322 325 323 326 327 328 325 322 323 321 322 321 322 324 325 325 326 329 331 330 331 332 334 335 334 333 332 331 331 331 330 332 331 330 329 327 325 323
320 321 319 319 320 321 322 324 325 325 330 330 324 323 322 321 320 319 320 322 325 325 325 327 329 330 330 332 333 335 336 334 333 332 331 332 332 331 329 327 326 325 323 319
320 320 321 322 323 323 323 325 324 324 325 329 328 323 322 321 320 319 320 321 322 326 327 326 327 328 330 331 333 335 335 335 334 333 333 331 330 329 328 327 325 323 320 316
320 321 324 323 320 320 323 323 324 327 327 327 326 328 322 321 321 321 321 321 323 325 326 328 327 326 328 330 332 333 333 334 333 333 332 331 329 328 326 324 323 321 319 314
320 320 323 322 322 322 322 324 324 324 325 329 333 326 321 321 320 320 320 321 323 325 326 329 330 330 329 329 329 330 331 331 331 331 328 325 324 323 321 320 318 316 312 309
321 320 321 324 322 321 321 322 322 323 328 325 323 322 322 321 321 321 322 321 322 325 326 325 327 329 329 330 330 331 331 330 330 325 320 318 316 314 313 311 310 308 306 304
321 321 320 320 320 319 319 320 321 321 321 323 322 322 321 321 321 321 322 322 321 321 324 326 327 329 330 331 331 327 322 320 318 315 313 311 310 309 308 307 305 304 303 302
321 323 321 320 319 319 318 318 318 319 319 319 320 320 320 319 320 322 322 321 322 321 322 327 329 331 331 329 328 324 319 316 314 311 309 309 309 309 309 307 306 305 302 301
321 323 322 324 320 320 324 319 319 319 319 319 320 320 320 320 320 321 321 322 322 323 323 325 328 329 326 324 323 321 317 313 311 310 309 309 308 306 305 305 304 303 302 301
324 323 324 328 324 330 321 320 320 320 319 319 319 320 320 319 319 321 321 322 323 322 322 323 324 322 320 319 317 316 314 312 310 308 307 306 305 305 304 304 303 303 302 302
321 325 327 330 326 321 319 320 321 320 320 320 320 320 320 320 320 320 319 321 321 320 319 319 318 317 315 314 313 312 310 309 308 307 306 306 305 304 304 303 302 302 301 301
319 322 329 327 327 328 321 320 320 320 325 320 320 320 319 320 322 320 318 319 318 316 315 314 314 313 313 312 311 310 309 308 307 306 305 304 304 303 302 302 301 299 297 296
324 325 331 330 328 323 320 320 320 324 325 321 320 319 319 320 320 320 317 315 313 312 312 312 312 312 311 310 310 309 308 306 304 304 302 301 300 300 299 297 296 295 295 295
325 325 330 328 331 331 321 320 322 323 323 321 321 320 321 321 319 317 315 313 312 312 310 310 310 310 309 309 308 307 306 304 302 300 299 298 296 295 295 295 294 292 291 291
324 324 326 324 325 323 321 323 321 322 322 323 322 321 321 321 317 315 314 312 311 310 310 309 309 308 308 308 306 304 302 300 299 298 296 294 293 292 291 291 290 290 289 288
320 320 324 323 323 322 322 322 321 321 322 322 322 321 320 320 316 314 312 311 310 310 309 308 307 306 305 304 302 300 299 298 296 295 293 291 290 289 288 288 287 287 287 286
319 319 320 320 319 320 321 321 321 321 320 320 319 320 320 318 315 312 311 310 310 309 307 306 305 303 301 300 298 297 296 295 293 291 290 289 288 288 287 286 285 285 283 281
314 315 321 321 317 323 321 322 321 322 322 319 318 318 318 316 314 312 311 309 308 307 305 304 302 300 298 296 295 294 293 292 290 289 288 288 287 286 286 286 284 282 281 279

GFSCGP_925_thetae_063.txt.gz
Theta_e
315 315 317 316 316 318 319 319 318 321 323 325 324 323 326 326 328 327 327 324 329 327 324 322 318 317 316 315 317 316 316 316 316 316 314 314 315 316 315 318 319 321 322 322
317 317 317 318 318 319 321 320 317 319 323 322 321 320 326 328 329 325 328 329 330 328 325 323 320 318 317 316 317 317 316 315 315 315 314 314 316 318 316 317 320 321 324 324
318 318 318 319 319 320 320 319 319 319 322 321 321 319 326 327 325 324 326 326 328 326 326 324 322 320 318 318 318 318 316 315 315 314 314 317 318 321 322 322 321 321 321 323
319 319 320 320 320 320 320 320 322 321 321 321 319 321 322 325 327 327 329 328 328 327 326 324 323 320 319 318 318 318 319 318 316 317 317 319 321 321 321 319 320 320 323 324
319 319 320 320 321 320 320 322 322 323 321 319 319 321 321 322 321 324 331 329 327 329 326 324 322 320 319 319 319 319 319 320 318 320 322 322 322 321 321 320 321 322 323 324
318 318 318 319 320 320 320 321 322 321 321 322 320 321 321 321 322 322 326 330 328 328 328 325 324 322 320 319 320 321 321 320 319 320 322 323 322 322 321 321 320 321 322 324
319 319 318 319 319 320 320 321 323 326 326 323 325 328 322 322 322 323 325 331 327 326 329 327 325 324 324 321 321 321 321 321 320 322 322 322 325 323 323 322 322 324 325 326
320 321 319 319 319 321 321 321 325 328 329 327 328 330 323 322 321 321 320 321 328 327 328 328 327 325 325 325 324 323 322 322 322 322 323 324 324 327 326 324 322 323 324 325
319 320 318 318 320 319 322 322 321 325 329 328 328 325 323 322 322 319 317 318 326 328 328 328 327 327 326 326 326 325 323 323 324 325 326 327 325 326 328 327 325 326 326 325
319 321 319 319 318 319 320 319 325 326 332 332 328 327 327 325 321 318 318 321 321 321 326 329 328 327 327 327 326 326 326 326 326 326 327 327 330 329 328 328 328 326 327 326
317 318 321 320 319 319 320 320 319 324 327 327 326 325 323 323 323 317 317 317 321 322 321 322 326 328 328 328 328 327 326 327 327 327 327 328 328 328 328 326 327 325 321 325
317 320 319 320 320 319 319 320 319 324 328 328 324 324 321 320 319 318 316 318 318 320 321 322 321 326 329 328 328 329 328 328 328 328 328 329 328 329 329 327 326 325 324 323
317 318 320 321 319 319 319 318 320 321 324 326 326 326 321 321 321 319 317 317 319 320 322 322 323 322 325 329 330 330 330 331 331 330 331 331 331 328 326 326 323 322 322 320
318 317 318 320 321 322 321 320 320 322 325 325 326 325 325 324 321 317 316 315 317 319 323 323 323 323 325 329 330 333 333 325 328 325 326 325 324 324 323 320 319 319 317 316
319 318 318 319 319 322 322 322 320 321 324 328 327 326 324 322 320 318 318 318 317 319 322 325 324 324 327 324 321 321 321 322 320 318 319 318 317 317 316 316 315 314 313 310
320 320 318 319 320 321 321 322 320 320 319 326 325 325 321 319 317 318 319 318 318 317 319 323 326 328 328 323 319 317 317 317 319 319 316 315 315 313 312 312 309 309 307 306
322 320 322 321 320 321 320 319 320 321 321 319 324 323 318 318 317 317 316 318 318 316 316 320 326 330 327 322 318 315 314 314 315 314 312 310 309 309 308 307 306 304 303 302
322 321 320 319 320 323 320 318 319 320 320 318 317 317 316 316 315 317 315 317 316 317 318 327 327 327 323 320 318 316 314 313 312 311 311 309 308 306 305 304 303 302 301 301
318 323 321 323 323 321 320 319 320 320 320 317 316 316 315 315 318 320 318 318 318 318 319 324 325 323 319 316 315 314 312 312 311 310 309 307 306 305 304 303 302 301 301 300
318 319 319 320 324 324 320 320 320 319 320 318 319 318 318 317 318 316 317 319 319 318 322 321 322 320 317 316 314 313 312 310 309 307 307 306 304 304 303 303 302 302 301 301
317 318 321 322 324 321 321 320 320 322 319 319 319 320 319 317 316 315 317 318 317 317 318 318 317 317 316 314 312 310 308 308 307 306 305 305 304 304 303 302 301 301 298 295
319 319 319 321 321 324 320 320 320 319 318 319 318 319 320 318 317 317 317 317 316 315 315 315 314 313 312 311 310 309 308 307 306 305 305 304 304 303 302 300 297 296 295 294
318 316 318 318 319 320 321 321 319 320 321 321 320 321 320 319 317 317 316 315 314 313 313 313 312 311 311 310 309 307 306 305 305 304 304 302 301 299 297 295 294 292 292 291
316 316 319 319 318 318 318 319 320 319 320 319 319 319 320 321 317 315 314 312 311 310 311 312 311 309 309 309 307 306 305 304 302 301 299 298 297 296 294 291 291 290 289 288
314 317 319 319 318 319 318 317 319 316 317 319 318 319 318 317 316 315 313 311 310 310 311 310 309 308 308 307 306 304 302 301 298 296 295 293 291 289 288 289 288 288 286 286
312 311 316 318 317 318 317 316 318 319 319 318 317 318 317 316 315 312 311 309 308 309 309 308 309 308 305 303 302 301 300 299 295 292 291 290 288 287 287 286 283 282 282 281

GFSCGP_925_thetae_066.txt.gz
Theta_e
314 313 314 313 313 315 316 317 317 316 319 322 322 322 323 324 323 326 323 323 325 323 320 318 317 317 317 318 317 317 316 315 316 317 318 316 315 314 314 317 319 321 320 321
316 316 314 314 315 316 317 318 318 316 321 322 320 319 320 323 324 326 326 323 326 324 321 319 317 316 316 317 317 316 316 315 315 316 315 315 314 313 314 315 318 319 320 320
317 317 316 316 316 317 317 318 318 317 317 319 320 319 326 325 326 324 324 324 327 325 322 320 317 316 315 315 316 316 317 316 315 315 315 314 313 313 313 313 313 315 320 321
317 317 318 317 317 317 319 318 319 320 320 321 318 319 322 327 326 324 324 327 328 326 324 321 318 316 315 315 316 316 316 316 316 316 315 314 314 315 315 315 315 315 319 322
320 318 318 318 319 318 319 319 320 321 321 318 319 318 317 322 326 325 324 325 329 326 325 322 320 318 316 315 316 317 316 315 315 316 315 314 315 316 318 319 317 316 318 321
318 317 317 318 319 318 318 319 320 320 319 321 320 319 317 318 320 322 325 325 327 326 325 324 321 320 318 317 317 317 316 315 315 315 314 314 316 319 320 320 320 321 320 319
317 318 316 316 317 317 318 319 321 323 323 323 320 324 322 318 318 321 328 327 326 327 325 324 322 319 318 317 317 317 317 317 316 315 316 316 318 319 320 321 320 319 319 321
317 320 317 317 317 318 318 319 322 326 324 323 324 327 324 320 319 319 328 328 326 328 326 323 322 320 319 317 317 317 317 317 317 317 317 318 319 321 321 321 320 320 320 320
319 319 317 317 317 317 320 320 320 323 326 325 323 323 321 320 321 319 321 328 326 325 327 326 322 321 320 318 317 318 318 318 318 317 318 319 320 321 322 322 321 321 321 322
317 320 318 318 316 317 319 319 322 323 328 329 326 325 325 322 321 317 315 322 322 325 323 327 325 323 322 320 319 318 319 319 318 318 318 319 320 321 323 325 324 322 322 323
315 317 318 318 318 317 318 318 318 321 326 327 325 323 320 321 319 319 315 318 318 324 325 325 327 326 324 323 323 321 320 321 320 320 320 320 322 323 324 325 325 325 325 324
315 316 318 318 318 317 317 319 318 321 325 324 322 324 319 319 319 318 315 316 317 321 325 325 326 327 326 325 325 324 323 322 322 322 322 324 325 326 327 326 326 323 321 323
317 317 319 318 317 317 317 318 319 319 320 321 323 325 320 318 318 316 316 313 316 318 317 317 319 325 327 326 326 326 325 325 325 326 326 326 326 327 327 327 326 322 318 320
319 321 317 319 318 318 319 318 318 319 320 320 322 322 322 320 319 319 317 313 315 317 319 319 319 321 324 326 326 326 326 326 327 327 326 328 327 325 322 323 324 323 321 320
321 321 319 317 317 318 320 320 318 319 320 323 322 324 322 321 320 320 318 314 316 316 320 321 320 325 323 324 327 328 328 328 327 323 322 324 321 325 319 320 323 321 320 320
321 323 319 320 317 318 318 318 319 319 318 319 322 322 320 319 318 318 316 318 315 317 319 321 322 325 322 321 322 323 326 325 323 321 318 317 318 315 316 316 316 317 314 311
320 322 323 323 318 318 320 319 319 319 319 321 324 322 321 320 319 317 317 316 315 315 316 321 325 326 322 320 318 318 320 320 318 316 314 313 311 311 312 313 311 309 308 307
319 319 321 320 316 323 319 317 317 318 318 317 318 319 320 320 319 315 315 315 315 313 313 319 324 326 321 318 316 315 315 315 314 312 311 310 309 307 306 305 305 305 305 304
318 318 317 322 319 320 319 318 318 318 318 317 317 315 314 314 315 318 316 314 315 312 315 319 325 323 318 315 315 314 313 313 313 311 310 308 307 305 304 303 303 303 302 301
316 316 316 318 322 322 318 316 318 319 320 317 317 317 317 315 315 314 316 316 317 319 321 321 320 317 315 314 313 313 311 311 312 310 309 308 306 304 303 303 302 301 300 299
314 313 318 319 322 319 318 319 318 322 319 318 318 318 317 315 315 314 316 318 318 320 319 320 319 317 315 314 313 311 310 310 309 308 306 305 304 303 303 302 301 300 300 299
315 317 317 317 320 319 319 321 321 317 318 320 319 318 316 315 316 315 317 317 317 318 316 317 316 314 314 313 312 308 308 307 306 306 304 304 303 303 302 302 301 300 299 296
316 316 317 318 317 317 318 321 319 319 319 319 319 318 318 316 315 316 316 316 316 316 314 314 312 310 312 311 311 307 306 306 305 304 303 303 303 302 303 301 299 294 293 291
311 314 316 317 315 316 316 319 317 319 317 317 318 317 317 317 315 316 314 313 312 311 311 311 310 309 307 309 308 307 306 306 304 303 302 302 301 300 298 297 295 293 290 288
309 312 314 316 316 317 317 316 315 316 316 316 317 316 316 315 317 314 314 313 312 310 309 310 309 308 306 306 305 305 304 304 302 300 297 296 294 293 291 290 290 290 289 289
311 313 316 314 315 316 316 313 314 316 314 314 316 316 314 314 315 314 312 311 310 309 308 307 307 305 304 303 302 302 303 304 300 293 292 291 289 288 287 286 284 285 286 286

GFSCGP_925_thetae_069.txt.gz
Theta_e
313 313 313 313 312 313 315 316 315 314 314 319 320 321 319 321 321 322 320 323 323 323 318 318 318 317 317 318 318 318 318 318 318 318 320 319 319 320 322 322 321 321 319 319
314 315 313 312 313 314 315 315 315 314 315 318 319 320 318 321 322 321 322 320 323 322 319 317 316 317 317 318 317 317 316 317 317 318 319 318 318 317 317 318 320 320 320 320
315 316 315 313 314 315 315 315 315 316 315 318 319 317 319 322 323 323 323 322 324 323 321 319 316 315 315 317 317 317 316 316 316 316 316 317 316 316 316 315 316 319 320 320
314 315 316 315 315 314 315 315 316 317 317 319 316 318 316 321 324 325 323 323 324 324 322 319 317 315 314 316 316 316 316 315 316 316 316 316 316 314 314 314 314 317 318 318
315 317 316 317 317 315 317 317 317 318 318 318 318 316 315 320 325 324 323 323 324 324 323 321 318 316 315 315 316 317 316 315 314 315 315 316 315 314 313 313 314 314 315 315
314 315 315 317 317 316 317 318 318 318 317 320 319 318 317 317 321 322 323 322 323 325 324 322 320 316 315 315 315 316 316 316 315 315 314 314 315 314 314 314 314 314 314 314
313 316 316 316 317 316 317 317 319 320 320 321 318 319 317 316 315 319 319 322 322 325 324 323 320 317 316 314 314 315 316 315 315 315 315 315 315 315 315 315 316 316 315 314
314 316 315 316 317 317 316 317 320 324 323 321 322 326 323 319 318 317 315 320 322 325 324 324 322 320 318 316 315 315 316 315 315 315 315 315 315 314 315 316 316 317 318 315
315 314 316 315 316 316 318 318 317 319 323 324 322 320 318 318 318 317 321 322 323 323 325 324 323 321 319 317 316 316 316 316 315 315 315 314 315 314 315 317 318 319 320 320
316 319 317 316 315 315 317 317 320 320 325 327 322 323 321 320 320 316 318 325 324 324 325 324 323 322 320 319 317 316 316 316 316 316 315 315 315 316 317 318 320 321 321 321
314 316 317 317 317 317 317 318 318 320 321 324 325 322 317 320 320 316 313 319 325 324 325 325 324 322 321 320 317 316 316 316 316 316 316 316 316 316 318 318 320 321 322 323
314 315 317 316 315 316 316 317 318 319 321 322 320 323 317 317 317 317 316 315 314 321 323 323 325 324 321 320 319 317 317 317 317 316 316 317 317 317 318 319 321 323 324 323
320 318 318 317 316 315 316 316 317 318 317 321 323 321 318 317 318 317 315 312 312 315 319 322 322 324 324 322 321 319 318 318 319 319 318 317 317 318 319 322 323 324 324 322
319 321 321 320 317 316 317 317 317 318 319 318 320 319 317 319 318 317 316 314 313 312 315 317 319 323 325 324 323 322 321 320 320 320 320 320 320 321 322 323 324 325 325 320
321 323 322 321 320 318 317 318 317 317 318 319 318 318 316 317 317 317 316 316 313 313 315 317 317 317 321 324 325 324 324 322 321 322 322 322 322 323 324 326 325 324 325 323
320 323 320 321 319 317 317 316 317 317 317 317 318 318 319 318 316 317 317 317 314 314 314 317 318 323 322 322 323 324 324 324 324 324 324 324 325 325 324 325 322 320 319 320
320 320 320 320 318 319 321 318 316 316 318 318 319 318 317 318 317 316 317 316 316 313 315 315 320 325 323 322 324 324 324 324 324 323 320 319 321 322 323 322 319 315 316 313
317 317 317 320 318 325 320 316 316 316 316 317 317 318 318 317 317 316 314 315 314 313 312 313 319 323 323 322 321 323 322 321 319 317 316 315 316 315 313 312 311 309 310 310
315 314 316 317 319 319 315 318 317 317 317 316 315 315 314 313 314 312 312 311 314 313 313 312 319 323 319 318 318 319 318 317 316 314 315 314 312 309 308 307 307 307 306 304
316 314 315 317 319 318 311 314 312 316 319 315 317 316 314 314 315 312 312 313 311 310 314 318 320 318 316 314 315 316 315 315 315 313 311 311 311 310 308 307 306 304 304 302
315 314 318 318 319 315 315 314 317 323 319 319 318 317 315 314 313 313 311 314 315 317 318 318 317 317 315 315 314 313 314 314 313 312 311 309 308 308 306 304 303 301 299 299
313 314 312 317 318 314 316 318 324 318 317 318 318 316 317 316 315 314 313 313 318 319 317 317 316 314 314 314 313 311 311 311 312 310 307 306 305 304 303 301 299 298 298 296
313 311 311 312 314 313 312 315 315 316 319 319 319 318 315 316 316 313 314 315 317 317 315 316 313 311 312 312 312 309 307 310 309 306 304 303 302 301 301 300 298 297 296 293
308 311 313 314 312 313 312 313 317 318 317 317 317 316 316 315 314 314 313 315 314 313 312 311 311 309 307 310 310 311 307 307 305 302 301 301 300 299 298 299 298 296 292 289
306 309 311 311 311 313 314 314 313 314 315 316 315 315 315 315 314 315 314 314 313 311 310 311 309 308 305 307 307 306 305 305 302 300 298 296 295 296 293 292 291 291 290 291
310 311 312 310 312 312 313 314 312 314 314 313 315 316 314 314 314 313 313 311 311 309 308 307 306 304 303 304 303 303 303 303 300 295 293 292 291 289 288 287 285 287 288 288

GFSCGP_925_thetae_075.txt.gz
Theta_e
316 317 319 318 315 313 313 314 314 314 313 315 315 314 316 317 322 323 325 327 329 329 326 321 320 319 318 318 319 320 320 320 320 320 321 322 322 322 321 317 314 316 315 313
315 319 317 315 314 315 314 315 315 314 314 315 315 316 317 318 320 321 323 324 327 327 323 321 319 319 318 318 318 319 320 320 320 320 321 320 321 321 321 318 316 314 315 315
316 316 315 315 315 316 316 316 316 314 314 314 316 318 320 319 319 321 322 322 323 326 324 320 319 317 318 317 317 318 319 319 319 319 319 319 320 320 320 318 317 315 313 315
314 314 315 315 315 316 317 314 315 315 315 314 317 320 319 319 319 318 321 323 323 324 325 321 318 316 317 318 318 319 318 319 319 319 318 319 318 318 319 317 317 316 314 314
315 315 316 315 315 314 315 314 315 315 315 315 315 319 319 316 320 320 320 322 324 323 325 323 319 317 316 317 318 318 318 318 318 319 319 319 319 318 319 318 318 315 315 315
314 313 314 314 315 313 315 316 317 318 318 322 319 320 320 320 320 320 319 320 323 324 324 323 321 318 317 316 318 317 318 318 317 318 318 318 318 319 317 316 316 316 317 316
314 314 315 315 315 314 315 318 320 323 324 322 318 320 321 320 318 318 320 319 319 323 324 323 322 319 317 316 316 315 317 317 317 316 317 317 317 317 316 317 317 316 316 317
312 315 315 316 318 318 317 318 322 320 325 323 317 322 320 320 319 317 317 318 317 322 324 324 322 320 318 316 316 314 316 317 317 316 316 317 317 316 316 315 315 315 315 316
312 311 312 315 316 318 318 319 319 320 321 324 322 321 319 320 319 319 318 318 320 319 324 324 323 321 319 317 316 316 316 317 317 317 316 315 316 317 316 316 316 315 314 314
314 316 314 314 315 316 317 317 320 320 322 322 321 322 321 320 321 319 320 319 317 321 322 324 323 321 320 319 317 316 317 317 317 317 316 316 315 315 315 315 315 315 316 316
313 316 316 316 316 316 317 318 318 319 321 322 322 322 321 322 321 321 321 319 318 320 323 325 324 322 320 319 318 317 317 317 317 317 316 316 315 315 314 314 314 315 316 316
317 313 314 313 313 314 316 318 319 322 321 322 322 322 318 320 320 320 320 319 319 317 322 323 325 323 321 320 318 317 317 317 317 317 316 316 316 315 314 314 314 314 315 315
316 319 318 316 315 316 317 315 317 318 317 321 324 321 318 318 318 319 318 320 318 317 317 323 324 324 323 321 320 318 317 317 317 317 316 316 316 316 315 315 315 315 316 316
316 320 322 321 321 321 322 321 320 318 321 319 320 319 319 319 320 320 320 319 318 318 315 319 324 325 324 322 321 320 318 317 317 317 316 316 316 316 316 316 316 316 316 316
315 316 315 316 314 316 318 319 319 320 319 319 318 317 317 319 319 319 320 317 317 317 316 316 319 322 324 323 322 320 320 319 318 317 317 316 316 316 316 316 316 316 316 317
308 318 319 319 316 315 318 318 315 319 319 317 317 317 316 317 316 314 316 316 316 317 316 317 316 318 321 323 322 321 319 318 318 318 318 317 317 316 316 316 316 316 316 317
308 317 319 318 319 319 316 314 318 316 316 317 319 317 316 317 317 317 317 318 317 317 317 317 317 316 319 321 322 321 320 319 318 318 318 318 317 317 316 316 316 317 318 319
307 309 316 317 316 319 313 314 316 315 316 316 315 314 315 315 317 317 317 318 318 317 317 317 317 317 317 318 321 323 321 319 318 319 319 318 318 318 318 318 318 319 320 320
307 309 317 319 318 315 312 311 312 316 314 318 318 319 318 317 315 315 313 313 316 317 315 315 314 314 315 317 319 321 322 321 320 320 319 319 319 319 318 318 318 319 318 316
309 311 316 315 317 317 312 312 316 314 317 317 318 320 320 318 320 318 315 313 313 312 312 312 311 311 313 318 319 320 321 322 322 321 321 320 320 318 318 318 318 317 315 313
311 315 315 314 315 315 313 313 317 317 316 315 315 317 319 319 318 316 314 315 314 314 318 318 316 316 317 319 321 322 322 321 321 318 317 318 319 318 316 315 314 311 308 306
313 313 313 313 315 315 311 316 317 315 316 314 314 314 318 318 316 315 314 314 315 316 318 317 316 314 316 319 320 320 319 315 317 317 316 316 314 313 311 310 305 303 301 298
313 314 316 315 315 312 312 313 311 314 315 314 314 313 314 317 317 315 315 314 314 315 316 314 313 311 312 315 317 314 312 315 315 313 310 309 308 306 305 304 300 297 296 293
309 308 312 311 311 311 309 309 311 311 311 312 312 313 314 317 317 317 315 315 314 314 315 314 312 311 310 311 312 311 311 312 309 304 302 302 302 300 299 297 296 294 292 290
306 308 310 310 309 310 310 310 309 308 309 309 309 312 315 315 315 313 313 312 313 312 312 311 310 308 307 306 306 307 308 308 304 300 298 296 296 295 293 293 292 292 291 291
308 309 311 310 307 307 308 308 306 305 307 305 302 301 301 301 304 306 302 302 304 306 307 306 304 302 299 300 300 302 303 306 301 296 294 293 292 290 289 288 286 288 290 290

GFSCGP_925_thetae_078.txt.gz
Theta_e
315 317 319 318 318 318 319 319 319 318 316 317 317 318 318 319 321 324 326 328 329 331 332 329 328 326 322 321 322 323 322 321 321 321 322 322 321 318 318 315 314 310 312 312
318 318 316 317 319 318 318 318 318 318 317 317 317 316 317 319 321 323 323 327 329 330 332 329 327 325 322 321 322 322 320 320 321 323 323 322 320 320 317 314 311 310 311 309
318 317 315 317 318 319 319 319 319 318 317 317 317 318 316 317 321 322 324 325 326 330 332 330 326 324 323 321 321 321 321 320 320 322 322 321 321 321 317 314 311 309 310 312
315 315 316 318 318 318 319 318 318 318 318 319 318 319 318 320 321 321 322 325 326 327 330 330 328 325 324 322 320 320 321 320 320 321 322 321 322 321 320 315 315 315 315 315
316 314 314 316 317 316 318 317 317 318 319 319 319 318 319 320 321 322 321 322 326 327 329 330 328 325 323 322 319 321 322 321 320 320 321 321 321 321 320 318 316 314 314 315
315 315 315 315 316 317 317 317 317 318 319 322 320 318 321 320 322 322 321 321 324 327 328 329 327 325 324 323 321 321 321 321 322 320 320 321 320 320 320 319 318 317 314 314
313 314 315 315 314 315 316 319 323 325 324 323 320 321 321 321 322 322 322 322 323 326 328 329 329 327 325 323 322 320 321 321 321 322 320 321 320 319 319 319 318 317 316 315
311 314 314 315 316 317 317 320 323 324 326 325 321 322 322 322 322 323 323 322 323 324 328 329 329 327 325 323 321 319 321 322 322 321 322 321 321 320 320 321 321 318 317 317
310 311 314 314 315 317 319 320 319 320 322 324 323 323 322 321 321 321 322 323 323 324 327 328 328 327 326 324 322 320 320 322 322 322 322 322 322 321 321 321 320 319 317 317
314 312 312 314 315 317 319 319 322 322 326 326 323 322 323 322 321 322 323 324 323 325 325 328 328 327 326 325 323 320 320 321 322 322 322 322 321 321 321 320 320 320 319 319
311 316 318 315 316 318 319 320 320 321 322 324 325 323 322 321 322 322 323 323 323 324 327 327 328 327 327 326 324 322 321 321 322 322 322 321 321 321 321 321 320 319 319 319
315 316 318 318 316 316 317 319 319 322 322 322 323 323 320 322 323 324 324 323 323 323 326 328 328 327 326 326 325 324 323 321 321 322 322 321 320 320 321 321 320 320 320 320
315 316 315 314 315 316 318 318 318 319 320 322 327 323 320 320 321 321 322 322 322 322 322 327 329 329 328 326 326 325 324 323 322 321 322 322 321 320 320 320 320 320 320 319
312 321 322 317 319 320 322 321 321 322 323 321 321 320 320 320 319 319 320 321 322 322 322 323 328 329 328 327 326 325 325 324 323 322 321 322 321 321 320 320 319 319 318 318
314 314 317 318 318 316 318 318 319 320 321 324 321 320 319 318 319 319 319 320 321 321 321 321 323 328 329 328 327 326 325 324 324 323 322 322 321 321 321 320 320 319 319 319
311 312 313 312 313 313 314 315 316 317 317 319 321 321 319 319 319 319 319 319 319 319 320 321 321 322 326 328 328 327 326 325 324 324 324 323 322 321 321 320 320 320 320 320
309 316 316 315 314 314 316 315 315 316 320 320 320 316 317 317 317 318 319 320 320 320 320 321 321 320 321 323 326 327 326 325 325 324 324 324 323 323 322 321 320 320 320 320
309 313 316 316 319 317 314 314 316 318 316 317 317 316 320 320 320 320 318 319 319 319 319 320 321 321 320 320 323 325 326 325 325 325 324 324 323 323 322 322 321 321 320 320
308 310 315 317 314 312 312 312 314 315 314 319 319 319 321 321 321 320 319 319 319 319 319 317 318 318 317 318 320 323 325 325 324 324 324 323 323 322 322 322 321 321 320 321
309 310 313 316 313 315 313 315 316 315 314 316 318 317 316 319 324 322 319 319 319 319 320 320 321 320 318 317 317 320 323 325 325 324 324 323 323 322 322 322 322 319 320 319
310 311 313 314 316 315 313 312 316 316 316 314 314 313 313 316 317 318 318 318 318 318 320 321 321 321 320 320 321 321 321 324 324 325 324 323 323 322 321 319 316 318 316 313
312 313 314 313 314 315 314 314 314 313 313 314 315 315 317 317 316 316 318 318 318 318 319 320 321 318 316 319 321 323 323 324 323 322 321 321 320 317 315 315 311 310 307 303
312 311 313 312 312 313 315 313 313 314 315 315 316 316 316 317 316 317 318 318 318 318 319 319 318 315 313 314 317 321 317 318 318 317 313 310 310 310 310 308 303 301 299 295
310 311 313 313 312 311 312 313 313 312 312 313 312 311 314 315 317 318 317 317 316 317 318 318 317 314 310 309 309 312 311 311 308 305 303 302 301 299 300 299 298 295 294 291
309 309 309 310 310 311 311 311 311 310 310 310 308 307 307 306 309 309 312 309 309 311 311 313 313 309 306 304 302 303 305 305 302 299 297 295 294 293 292 291 292 292 292 292
308 309 310 310 311 310 310 310 307 308 308 307 305 303 302 301 302 302 302 301 301 301 299 298 297 298 297 295 295 298 299 300 297 295 293 291 290 289 287 286 286 289 290 289

GFSCGP_925_thetae_081.txt.gz
Theta_e
311 313 315 316 317 318 319 321 323 323 321 320 321 320 320 322 321 321 323 323 327 330 331 332 331 330 329 327 325 326 324 323 322 322 322 321 319 318 316 314 314 314 315 314
311 315 315 315 317 319 319 321 322 322 321 319 320 320 320 320 320 320 322 323 326 327 330 333 332 330 329 326 325 325 325 323 321 322 322 320 320 317 315 314 312 313 313 313
313 316 317 316 317 319 320 322 322 322 322 320 320 321 322 321 320 320 321 323 323 326 329 333 332 331 329 327 325 324 324 323 323 322 322 320 318 318 316 314 311 312 313 314
316 316 319 318 318 318 322 321 321 321 321 322 322 324 323 322 320 320 323 323 323 324 328 332 332 331 329 327 324 323 323 323 323 323 322 320 318 317 317 315 314 314 313 315
319 317 317 318 318 318 320 320 320 320 321 322 322 323 323 323 322 321 322 323 323 325 326 331 332 330 329 327 325 323 323 322 322 322 322 321 320 318 318 316 314 314 313 314
313 317 317 317 316 317 318 318 319 320 321 323 323 323 324 323 323 323 323 322 323 325 326 330 331 329 329 328 325 323 324 323 322 323 323 323 321 321 319 317 316 315 313 314
314 313 317 317 316 316 318 320 323 324 325 325 323 324 324 323 322 323 323 323 322 323 327 329 331 331 329 328 325 323 324 323 323 322 322 323 323 321 320 317 316 316 316 316
317 316 313 317 317 317 318 319 322 326 330 328 325 323 323 322 323 322 322 323 323 324 326 328 330 331 329 328 326 324 324 324 323 322 322 323 324 323 321 319 317 317 316 315
318 315 313 315 315 317 319 320 319 324 325 327 327 325 324 322 322 323 323 323 323 323 324 327 329 331 329 328 327 325 324 325 324 323 322 323 324 323 322 321 319 318 317 316
313 316 312 314 317 317 318 319 321 321 327 328 325 325 326 323 322 323 324 325 325 324 325 328 329 331 329 329 327 325 323 325 325 324 323 323 323 323 323 322 322 321 320 319
311 312 320 312 316 318 318 318 322 324 324 329 330 327 325 323 322 323 324 324 324 325 327 327 329 329 329 329 328 327 324 324 325 325 325 325 324 323 324 324 324 324 323 322
313 315 317 317 315 316 318 318 320 325 326 326 326 327 322 323 323 323 325 323 323 324 325 328 328 330 329 329 329 328 326 323 324 325 325 325 325 325 324 324 324 324 324 322
311 315 316 322 318 316 317 318 319 321 322 326 332 326 322 322 321 320 321 322 323 323 324 326 329 329 330 329 329 328 327 325 323 324 325 326 326 325 325 325 324 324 324 323
312 317 319 320 319 319 318 319 319 320 324 322 322 323 322 321 321 320 320 321 321 322 323 323 326 330 330 329 329 329 328 328 326 324 324 325 326 325 325 325 325 324 323 323
312 316 318 319 320 318 320 321 321 321 322 324 323 323 321 321 320 320 320 320 320 320 321 322 322 325 329 329 329 329 329 329 328 326 325 325 326 325 324 324 324 325 324 324
310 311 313 315 315 316 316 316 317 318 319 319 319 319 319 320 320 320 320 319 319 320 321 321 321 322 323 329 329 329 329 329 328 328 328 326 325 326 325 324 324 323 323 323
310 312 311 316 315 316 319 316 316 316 316 317 319 319 317 318 318 319 319 319 319 320 321 321 321 323 322 322 327 329 329 328 328 328 328 327 327 326 325 325 324 324 324 323
310 311 313 316 316 318 315 315 315 317 317 318 319 318 318 318 319 319 321 321 321 321 321 321 321 321 321 321 322 325 328 329 329 328 328 328 327 327 326 326 325 324 324 324
310 311 313 315 313 312 312 313 313 314 316 319 318 318 318 318 319 321 321 320 321 321 321 321 321 322 322 321 320 321 324 327 328 328 328 327 327 328 327 327 326 325 325 324
310 311 313 315 315 313 311 314 315 315 316 317 317 316 316 315 319 321 319 318 320 320 320 321 322 323 323 323 322 320 320 323 327 328 328 327 327 327 327 327 327 326 325 324
313 313 314 314 315 313 315 314 315 317 317 315 315 316 316 318 317 317 316 317 319 319 319 319 321 322 322 321 322 323 322 322 323 326 327 326 326 326 326 326 326 325 322 319
313 315 315 314 316 315 312 313 315 317 315 315 315 315 316 316 317 317 316 317 319 319 319 319 321 320 317 316 318 322 324 323 324 325 326 326 326 325 325 325 320 317 317 314
315 311 313 311 312 314 316 315 315 315 315 315 315 313 314 314 316 317 318 318 319 318 318 318 319 318 313 310 309 314 313 317 319 320 314 316 319 317 314 312 308 305 303 298
311 311 314 316 315 314 314 314 313 313 313 313 312 312 312 311 312 313 315 314 313 314 313 312 309 306 304 301 301 301 304 307 307 303 301 302 301 300 301 301 299 297 295 293
310 312 310 311 311 311 313 312 311 311 311 310 310 310 309 308 308 307 309 307 307 307 305 303 300 297 296 295 295 295 299 301 298 296 294 293 291 291 290 290 292 293 292 292
310 312 312 313 312 313 312 310 309 309 308 307 307 306 306 305 304 304 304 301 299 300 296 297 294 292 291 290 291 290 293 297 294 291 291 290 289 288 287 286 285 286 288 288

GFSCGP_925_thetae_084.txt.gz
Theta_e
311 311 313 314 320 320 320 320 320 320 322 323 322 321 321 322 323 324 323 324 324 327 330 331 331 331 330 329 327 327 327 326 324 323 322 320 319 318 318 319 321 321 320 319
315 313 312 312 314 318 320 319 320 322 322 322 321 321 321 322 321 322 322 322 323 325 328 333 333 331 330 329 327 327 326 325 323 323 322 320 319 318 317 317 315 315 316 317
319 317 313 313 315 315 317 320 320 321 322 322 322 321 322 322 322 322 322 321 322 324 327 334 334 332 331 329 327 326 325 323 322 323 322 320 318 316 314 314 316 316 315 314
320 317 315 316 318 319 319 319 320 321 322 325 323 324 323 323 324 324 323 322 323 323 327 333 334 333 332 329 327 325 324 323 323 323 321 319 317 316 314 313 314 314 314 315
320 318 319 319 319 321 321 319 321 322 323 324 322 323 323 323 323 323 322 322 324 324 325 331 335 333 332 330 327 325 323 323 323 323 321 319 318 315 315 313 312 313 314 315
316 314 315 320 319 319 320 322 321 322 323 326 323 323 324 323 324 323 323 324 325 324 325 327 334 332 331 330 327 324 323 323 323 323 321 320 318 316 315 313 312 313 315 316
314 315 314 313 320 319 318 321 326 327 326 327 321 323 324 324 324 324 324 324 324 325 326 327 334 332 331 330 327 324 323 323 323 323 322 321 319 317 316 315 314 313 315 315
317 320 316 315 315 320 319 319 327 330 332 327 322 324 324 324 323 323 323 323 324 325 328 328 332 332 331 330 327 325 324 323 322 324 323 323 320 318 317 316 315 314 314 314
316 319 315 315 315 318 321 321 319 323 323 330 332 324 324 323 323 323 322 324 324 325 326 327 330 332 331 330 328 325 325 325 323 323 323 323 323 321 319 317 316 315 315 314
311 316 314 316 314 316 319 319 323 324 329 337 329 327 326 324 323 323 324 326 325 325 325 325 327 332 331 330 329 325 325 326 324 323 323 323 324 322 321 320 318 316 315 315
311 313 313 314 317 320 319 322 323 325 325 337 338 330 327 326 325 326 326 326 326 327 328 327 328 332 331 330 330 328 326 325 326 324 323 322 324 325 323 323 321 318 316 316
316 316 314 313 317 316 319 320 321 329 333 328 330 331 325 325 324 324 325 323 324 325 326 328 329 330 331 331 330 329 327 325 327 326 324 323 323 323 324 324 323 321 319 317
310 315 315 316 315 316 316 319 320 321 325 331 334 331 324 323 323 322 322 321 322 323 324 327 329 329 331 331 331 330 328 326 325 327 326 325 325 324 324 324 324 324 322 321
310 314 317 323 322 323 319 317 321 322 326 328 328 328 325 324 324 323 321 322 321 321 321 322 326 330 330 330 331 331 330 328 326 326 328 327 327 326 325 325 324 326 325 324
310 315 314 314 320 320 323 322 323 320 323 325 324 324 325 324 322 322 321 320 320 320 320 321 322 323 329 329 330 331 331 330 328 325 325 327 327 327 327 327 326 325 325 325
309 312 312 313 315 315 316 319 317 323 323 322 321 321 323 323 319 320 320 320 320 320 322 322 322 321 322 323 330 330 330 331 330 328 326 326 327 327 327 326 326 326 325 325
310 311 312 314 313 316 320 318 317 316 316 317 318 319 319 319 318 319 320 322 322 322 321 322 322 322 321 321 322 330 330 330 331 330 329 328 326 326 328 326 325 326 326 326
310 310 312 315 314 321 316 316 316 317 316 316 317 321 319 319 318 321 321 321 321 321 321 321 322 323 324 323 323 323 323 330 330 330 330 330 329 327 327 327 326 325 325 325
310 311 315 316 315 313 312 312 312 313 314 319 320 319 318 317 317 322 319 318 319 320 320 320 321 323 323 323 322 323 323 321 329 330 330 330 330 329 328 327 326 326 325 325
310 312 314 316 314 314 310 311 314 314 314 317 317 317 316 316 320 320 317 316 316 318 320 319 321 322 319 318 319 321 324 324 324 325 329 329 329 329 329 328 328 326 326 325
312 314 315 315 316 313 312 314 314 316 319 317 317 316 317 318 317 317 317 316 317 318 319 320 321 318 314 311 312 319 318 317 319 323 323 325 329 328 328 328 328 328 327 326
313 315 315 314 315 316 313 313 316 318 316 315 315 314 315 314 314 315 316 317 318 317 317 316 317 312 306 303 304 307 307 308 310 314 312 311 315 322 327 328 324 323 320 312
314 312 313 312 312 312 316 317 315 315 315 314 313 312 312 312 313 312 314 313 312 311 309 308 307 305 301 299 298 298 299 303 304 303 300 301 303 305 307 310 311 314 315 310
314 312 315 314 315 316 316 313 312 312 312 311 311 310 310 310 309 309 310 307 307 306 303 302 300 298 295 294 293 293 295 298 298 297 293 292 291 291 295 297 297 298 298 296
312 313 313 314 314 314 312 311 310 309 308 307 308 307 307 306 306 306 305 302 301 299 297 296 294 293 291 291 290 291 293 294 294 293 293 290 288 287 286 285 286 289 291 292
312 311 315 316 309 310 308 307 307 307 306 305 305 304 304 302 302 302 301 296 295 293 291 290 289 288 287 287 287 288 290 292 291 290 289 289 288 287 286 285 284 284 284 286

GFSCGP_925_thetae_087.txt.gz
Theta_e
309 305 305 310 313 318 319 320 320 317 318 319 319 320 318 315 316 318 318 318 318 322 323 327 329 330 330 329 330 328 327 326 325 323 322 319 319 319 319 320 324 326 326 325
310 309 307 309 312 314 316 320 320 319 319 319 319 320 316 316 316 316 319 317 318 317 324 327 328 329 329 328 329 327 326 326 324 322 321 320 318 317 317 317 319 321 321 321
315 316 316 314 313 314 314 315 315 318 318 319 320 320 321 319 318 318 317 316 317 317 325 329 329 328 328 327 327 327 326 324 323 322 320 319 318 317 317 316 318 319 320 320
319 318 319 318 316 314 316 315 317 321 324 326 320 324 321 320 319 319 319 316 314 315 326 330 329 328 326 326 327 326 325 324 322 321 320 318 317 317 316 316 317 318 319 320
317 319 319 321 318 316 316 318 320 322 324 324 323 324 321 321 321 320 319 319 315 315 330 331 330 329 327 326 326 325 325 323 322 322 320 319 317 317 316 315 315 315 315 316
315 313 315 318 318 317 317 321 323 322 324 330 326 324 322 321 320 320 320 319 317 316 329 331 330 329 327 326 325 324 324 323 323 322 320 319 318 316 314 314 314 314 315 315
312 313 313 314 316 316 322 324 330 330 330 327 322 323 322 320 321 321 321 319 317 318 324 331 330 329 328 325 323 323 323 323 323 323 321 319 318 316 315 313 313 314 314 315
312 317 313 314 315 320 321 324 329 329 330 330 322 323 320 320 320 320 319 318 318 318 328 331 330 329 328 325 323 323 322 322 323 323 321 320 318 316 315 313 312 313 314 314
313 317 315 315 316 315 321 323 320 325 324 330 328 327 321 320 320 320 319 318 318 320 328 331 330 328 328 325 323 322 322 322 322 323 322 320 319 317 315 314 313 313 313 314
309 313 314 314 315 317 319 321 325 324 328 332 330 329 326 323 321 321 321 321 321 320 321 329 330 328 328 326 324 323 322 322 322 323 323 322 320 318 317 315 314 313 313 314
310 312 313 313 317 318 318 322 324 323 326 334 335 334 328 326 322 324 320 319 321 323 322 320 330 328 328 327 325 324 323 323 322 322 323 323 323 319 318 317 316 315 314 314
311 315 315 312 313 315 318 320 323 329 326 328 331 331 327 326 324 319 318 318 319 318 321 322 328 328 328 328 325 324 324 324 323 322 322 322 322 322 320 319 318 316 315 315
307 316 319 317 315 315 316 320 321 322 323 328 330 331 327 325 324 322 319 318 318 317 317 316 325 328 328 328 327 325 324 324 324 322 322 322 322 322 323 321 321 319 317 316
309 313 316 321 322 317 322 321 321 324 327 324 329 328 324 323 324 323 321 318 316 318 319 319 317 322 327 328 328 327 325 325 324 324 323 322 321 321 322 324 323 323 321 318
310 313 314 314 314 318 318 321 321 324 323 327 324 325 324 323 324 323 320 319 320 320 320 320 319 317 317 320 325 328 327 325 324 324 325 323 322 322 322 322 323 323 323 321
309 312 312 312 312 314 320 319 319 319 323 325 324 324 324 321 320 320 321 320 320 320 320 321 321 322 320 321 321 323 328 327 325 324 324 326 325 324 323 323 323 323 323 324
310 311 313 315 313 312 318 318 320 319 320 320 324 322 319 321 321 320 318 319 319 319 319 320 320 322 321 320 321 321 323 325 327 326 324 324 325 326 325 325 324 324 323 323
309 310 312 311 310 317 318 316 316 316 318 318 321 319 319 321 318 316 316 316 318 318 319 318 321 319 317 315 316 319 322 323 323 328 327 325 324 325 326 326 326 325 325 324
308 309 309 312 314 313 311 312 313 312 320 319 320 319 318 317 316 316 315 314 314 316 317 318 316 313 311 310 311 317 314 315 316 320 320 321 326 326 325 325 326 325 325 324
308 308 310 310 315 312 312 313 314 316 321 318 318 318 317 317 318 317 316 315 316 314 315 313 309 306 305 305 307 309 308 309 311 313 313 312 312 322 327 326 325 326 325 324
309 309 311 311 313 314 312 313 314 318 318 315 314 314 314 315 315 313 313 312 309 308 306 308 304 301 300 299 301 304 303 302 305 306 305 304 304 307 311 321 326 325 325 325
310 311 311 311 311 312 314 315 318 317 315 313 312 312 313 312 310 310 308 308 305 303 301 300 300 298 296 295 296 298 297 298 300 299 298 299 303 299 301 302 307 315 322 323
312 310 311 310 310 313 314 314 313 313 311 311 310 309 309 309 308 307 305 303 301 298 297 296 296 295 293 292 292 293 293 296 296 295 294 292 297 300 295 295 293 295 300 301
311 312 311 311 314 312 310 311 309 308 308 307 306 306 305 306 304 304 301 299 296 294 293 293 293 292 290 289 289 289 291 294 294 293 291 290 288 289 295 291 289 288 289 292
313 312 313 314 311 309 308 307 308 307 305 305 304 303 301 302 301 299 296 294 293 291 290 289 288 288 287 287 287 287 290 292 292 290 289 288 286 286 285 285 285 286 287 289
307 307 311 309 305 308 305 302 303 303 302 300 299 298 296 295 296 297 293 291 289 287 286 286 285 285 284 285 285 286 287 289 289 288 287 287 286 285 285 285 284 284 284 285

GFSCGP_925_thetae_090.txt.gz
Theta_e
308 303 304 306 309 314 316 317 318 317 318 319 318 316 316 316 317 316 314 313 313 319 320 325 328 329 331 331 331 330 329 327 326 324 323 322 320 321 322 322 324 327 328 327
309 307 305 306 309 311 313 315 317 318 318 318 319 319 318 318 318 315 315 315 316 316 320 326 328 327 330 330 330 329 327 326 325 323 322 321 321 319 320 320 321 324 327 326
309 313 311 309 310 310 313 314 314 316 318 317 320 320 319 319 317 315 315 317 317 316 320 327 327 326 328 328 328 327 326 325 324 323 322 321 319 318 317 317 320 322 324 326
315 317 319 319 319 316 315 313 314 315 323 323 321 327 322 320 320 320 315 313 315 315 320 327 327 325 327 327 327 326 326 325 323 322 321 320 318 317 316 317 319 320 322 323
316 319 318 319 320 317 317 313 315 318 323 323 323 326 323 320 321 320 320 317 315 311 320 327 327 326 326 326 325 325 325 324 323 322 321 319 317 318 317 316 318 319 320 320
313 313 315 315 315 317 317 317 320 320 324 326 322 325 324 322 321 321 320 317 316 314 321 327 327 326 324 325 324 324 324 323 322 321 320 319 317 317 316 316 317 318 318 319
312 312 312 315 316 316 319 323 327 327 328 323 322 325 323 321 320 320 320 318 317 316 326 328 327 325 324 323 323 323 323 322 322 321 320 319 319 317 316 316 316 316 316 317
310 310 311 313 314 317 316 323 329 326 327 325 321 323 321 320 320 320 320 318 316 316 328 329 327 325 324 323 323 323 322 322 322 321 320 319 319 318 316 316 316 317 316 316
309 314 314 313 315 315 318 322 320 325 325 327 324 324 323 322 322 321 319 316 315 320 329 329 328 326 325 323 322 322 322 322 322 322 320 320 319 318 316 315 315 316 316 315
308 311 311 315 315 316 317 319 325 324 327 331 327 327 332 328 326 320 319 319 318 326 329 330 329 327 326 323 322 322 322 321 322 322 321 320 319 319 317 316 315 314 315 316
310 309 312 311 316 319 320 322 320 323 325 329 331 335 328 328 327 325 323 319 319 321 328 329 329 328 326 324 322 322 321 321 321 322 322 321 320 318 318 317 315 313 314 314
308 312 311 311 310 316 318 321 321 328 326 327 330 328 328 326 324 323 322 320 317 315 317 325 328 327 326 324 322 321 321 321 321 322 322 321 320 319 317 316 316 314 313 313
307 312 317 315 316 316 318 318 319 322 322 326 328 328 326 325 324 324 324 318 319 319 318 322 325 326 326 324 323 322 322 321 321 321 322 322 322 321 319 317 317 316 314 313
308 310 315 319 318 318 319 317 319 321 325 322 326 325 326 324 324 325 324 321 318 320 320 319 318 323 325 326 325 323 323 322 322 321 321 321 321 322 321 320 319 317 316 315
309 311 313 313 312 317 319 318 318 322 322 327 325 325 324 324 324 325 324 320 320 321 322 322 321 320 320 321 322 326 324 323 323 322 321 321 321 321 322 322 321 320 318 317
308 309 310 311 311 312 311 318 319 319 321 323 323 324 321 322 324 322 323 321 320 321 322 322 321 319 318 318 319 320 324 324 323 323 322 322 321 321 321 321 322 322 321 320
309 310 311 312 311 308 313 317 320 316 320 318 321 321 322 322 322 321 319 318 318 319 322 320 317 315 313 313 316 316 317 319 324 324 323 323 323 322 321 321 321 322 322 322
308 308 309 311 310 309 312 311 315 319 321 317 319 321 320 318 317 317 317 319 319 319 316 312 310 308 307 308 310 310 310 312 315 317 318 319 322 323 323 322 321 321 321 321
307 307 307 310 312 311 308 310 313 317 320 319 319 319 317 318 316 315 312 311 313 311 308 306 304 303 302 302 305 307 306 306 308 308 308 309 309 313 319 324 324 323 322 322
306 306 307 308 312 311 310 312 313 316 321 317 316 317 317 316 318 315 308 306 305 304 304 301 300 298 298 298 301 302 302 302 303 303 303 302 302 305 307 310 317 324 324 324
309 307 309 308 309 311 312 314 315 317 318 314 313 313 314 314 313 308 305 302 301 299 299 298 297 296 294 294 297 298 298 298 299 299 297 297 296 298 300 305 308 310 316 323
311 311 310 308 311 311 313 315 318 314 311 311 311 310 309 309 306 304 301 298 297 295 295 295 295 293 292 291 292 294 294 295 296 295 293 292 291 292 293 297 302 304 303 302
314 310 310 308 308 311 310 310 309 309 309 308 308 307 306 305 302 300 298 295 293 292 292 292 292 291 289 289 289 290 290 293 294 292 290 288 287 288 288 288 290 295 299 295
308 309 312 312 312 309 310 307 307 306 306 303 302 301 302 302 300 297 295 293 291 290 290 289 289 288 287 287 287 287 289 291 291 290 288 286 286 285 285 286 286 286 289 290
309 310 308 313 310 308 306 305 305 303 300 299 297 295 295 296 296 293 291 290 288 288 287 286 286 286 285 285 286 286 287 289 290 288 288 286 285 285 284 284 285 285 285 286
302 303 307 306 303 305 303 301 301 300 298 295 294 292 290 290 290 289 287 286 285 285 284 284 284 284 284 284 284 285 286 287 287 286 286 285 285 284 284 284 284 284 284 284

GFSCGP_925_thetae_093.txt.gz
Theta_e
306 305 305 303 310 313 315 315 316 315 315 318 318 316 316 314 315 315 315 314 312 311 312 318 328 329 330 329 329 329 328 329 328 326 325 323 325 324 323 323 324 327 328 328
308 305 304 304 306 308 311 312 313 315 316 316 316 317 316 316 316 316 316 314 314 313 317 321 328 327 329 329 328 328 327 326 328 325 324 322 322 321 321 322 322 322 324 327
309 311 310 306 306 307 307 309 312 314 315 316 317 317 316 317 316 316 316 316 315 314 318 325 327 327 329 328 328 327 326 326 326 324 323 321 320 319 320 320 320 320 324 326
310 313 318 318 318 316 317 312 313 314 319 316 319 319 316 317 318 318 318 316 316 313 318 325 326 326 328 328 327 327 326 324 324 324 322 321 319 316 317 318 318 319 321 324
316 318 318 318 318 317 317 315 315 313 320 322 321 322 317 318 320 319 318 318 316 314 317 325 326 326 328 327 326 325 324 323 324 323 322 321 319 317 318 317 317 320 322 323
313 314 315 315 315 317 317 317 317 319 321 322 318 322 319 318 319 319 319 319 319 313 311 323 325 326 327 326 325 324 323 322 323 322 321 321 319 318 317 317 318 320 320 321
312 313 312 315 316 315 318 319 317 324 323 321 319 321 320 318 317 319 320 319 318 314 311 322 325 325 325 324 324 323 323 321 322 321 320 320 320 318 317 317 318 318 320 319
312 309 312 313 314 315 318 319 322 323 324 324 318 320 321 320 319 319 319 318 318 316 315 324 326 324 324 324 323 323 322 321 320 320 320 320 319 319 316 317 317 318 319 320
309 311 311 312 313 314 317 320 320 324 324 326 322 321 321 325 325 324 322 319 315 315 314 325 326 324 324 323 323 322 322 321 320 319 320 319 319 319 317 317 318 318 318 319
308 310 312 314 315 314 317 318 324 324 327 330 324 323 330 329 327 325 323 317 315 318 323 326 326 324 324 323 323 322 322 321 320 319 319 319 319 319 319 318 316 317 317 317
309 308 310 314 316 317 318 320 319 322 324 329 328 330 329 328 325 325 324 321 318 316 327 327 326 324 323 323 322 322 321 321 321 320 319 319 319 318 319 318 317 316 317 317
307 311 311 310 309 315 317 318 320 323 327 324 327 323 327 326 324 321 323 322 319 319 322 327 327 325 323 322 321 321 321 321 321 321 319 319 319 319 317 317 317 317 315 316
308 312 314 314 315 315 318 318 317 318 320 323 326 323 324 324 323 320 321 322 320 321 325 326 326 325 323 321 321 321 321 320 320 321 320 319 319 319 318 318 317 316 315 314
307 309 313 314 315 314 317 317 318 319 323 323 324 324 325 324 322 320 320 321 321 323 322 321 322 324 324 323 323 322 322 321 321 320 321 320 320 320 319 319 318 317 316 314
307 309 311 312 314 313 316 317 318 319 320 323 322 323 323 324 323 322 320 321 323 323 321 320 320 319 319 319 320 322 323 322 322 321 320 321 321 321 320 319 319 318 317 316
307 307 309 309 310 312 313 309 308 316 319 320 322 322 320 323 322 321 320 321 320 321 317 315 314 313 313 315 313 314 316 319 322 322 321 320 320 321 321 321 320 319 318 318
308 308 309 310 308 308 308 311 312 318 317 319 323 321 320 323 322 319 321 318 320 315 312 310 309 307 307 309 308 308 310 312 318 321 321 321 321 321 321 320 321 321 320 319
307 307 307 309 307 307 306 306 317 318 318 317 318 320 319 318 314 314 316 315 312 309 307 305 304 302 301 304 306 306 306 307 307 307 308 308 311 315 319 321 321 320 320 321
306 306 305 307 308 305 306 310 312 313 316 319 321 319 317 315 313 310 307 306 305 304 302 301 299 298 297 299 303 303 302 303 303 302 302 302 302 306 307 311 315 321 321 321
305 305 306 306 309 306 309 313 313 315 319 317 318 319 318 316 317 310 305 302 300 299 299 298 296 294 294 294 298 299 299 299 299 298 297 296 296 299 299 299 303 308 314 319
306 305 308 308 309 308 308 312 314 315 314 313 315 315 315 312 310 304 301 298 297 296 295 296 294 292 291 291 294 295 296 297 296 294 292 291 292 293 294 296 297 298 302 308
307 307 306 307 310 308 309 312 315 312 309 310 309 309 307 305 303 300 297 295 294 293 293 293 293 291 289 289 291 292 292 294 294 291 289 288 288 288 289 292 295 295 294 295
307 308 310 306 306 310 308 308 307 306 304 303 304 305 303 301 299 296 294 292 291 291 290 290 290 289 288 287 288 289 289 292 292 290 288 286 286 286 286 287 288 289 290 291
309 306 309 311 311 310 308 305 303 303 301 298 297 297 299 298 295 293 291 290 289 289 288 288 287 287 286 286 286 287 288 290 290 288 287 286 285 285 285 285 285 285 286 286
304 304 304 309 306 306 304 304 301 298 297 296 293 292 292 292 291 289 288 287 286 285 286 285 285 285 285 285 285 286 286 288 288 287 286 285 284 284 284 284 284 285 284 284
301 300 302 304 300 303 301 299 299 297 294 292 291 289 287 287 287 286 285 284 283 283 283 283 283 284 283 283 284 284 285 286 286 285 285 284 283 284 284 283 281 282 283 284

GFSCGP_925_thetae_099.txt.gz
Theta_e
308 310 311 309 310 309 312 314 316 315 315 316 317 317 317 316 317 317 316 317 317 318 318 316 315 314 322 328 329 329 329 328 329 329 330 329 328 328 329 328 329 328 328 327
308 311 309 308 308 309 310 311 311 311 312 313 314 315 315 314 315 316 316 316 316 317 317 317 315 314 320 326 329 329 329 328 328 328 327 326 326 327 327 326 328 327 327 327
310 312 308 308 307 308 308 309 309 309 309 312 313 314 313 312 312 313 314 315 316 317 317 318 317 317 321 325 328 328 329 327 327 327 326 325 324 323 324 324 325 327 327 327
311 309 307 306 308 308 309 307 307 310 313 315 316 318 314 314 313 313 314 315 316 316 316 317 318 320 323 325 327 328 329 327 327 326 324 323 323 321 322 321 322 322 323 324
312 314 315 312 312 309 312 314 313 314 316 318 317 317 313 313 314 316 316 318 318 316 316 317 318 318 323 326 327 328 328 327 325 324 324 322 321 321 320 320 320 321 320 320
313 314 314 314 316 316 316 316 316 318 318 319 317 315 315 316 316 319 321 323 320 317 317 317 318 319 325 327 327 328 327 326 324 323 323 322 320 321 320 318 320 320 319 319
314 316 314 314 317 316 316 315 317 318 320 316 315 317 317 316 320 324 323 322 322 322 321 318 317 324 327 327 328 328 327 325 323 322 321 321 322 320 318 318 319 319 318 319
314 315 315 314 314 316 316 315 316 316 321 321 319 321 319 325 323 322 321 320 321 323 323 322 317 325 327 328 328 327 326 325 323 321 320 321 321 320 319 319 318 319 318 319
312 311 311 313 313 314 317 317 317 318 318 320 317 319 317 325 325 324 322 321 323 324 325 325 322 320 327 328 327 326 326 325 322 321 319 320 320 320 319 318 317 318 319 319
309 315 313 313 314 315 316 316 320 318 322 323 322 322 322 326 327 325 322 321 322 324 327 325 324 319 325 327 327 326 324 323 321 320 320 321 320 319 319 318 318 317 318 319
308 312 315 315 315 317 318 318 316 317 319 323 324 324 326 326 326 325 322 321 322 320 326 326 326 325 325 326 326 324 323 322 321 320 319 320 319 318 319 318 318 318 317 317
310 312 314 314 313 313 315 316 316 318 322 319 322 318 324 324 324 324 323 322 320 318 320 325 325 324 324 324 323 322 322 321 320 320 319 320 319 318 318 317 317 317 317 317
312 313 319 318 315 313 316 316 316 316 319 319 320 318 320 318 322 321 322 322 317 315 315 317 321 323 322 322 321 321 321 320 320 320 320 319 319 318 317 317 317 316 317 317
311 311 311 314 313 313 315 315 315 317 319 318 319 317 317 316 319 320 322 320 315 313 311 310 311 312 314 320 321 321 320 320 320 320 319 319 320 318 318 317 316 316 316 316
309 310 310 310 310 312 312 312 311 311 313 316 314 315 313 315 318 322 321 316 313 311 308 307 306 308 308 309 311 313 319 321 321 321 320 320 320 319 319 317 317 317 316 315
308 309 309 309 308 310 309 308 306 308 311 312 312 312 313 316 316 321 320 314 311 308 306 304 303 302 305 305 306 306 307 316 320 321 321 320 320 319 319 318 318 316 316 315
308 309 308 306 308 308 305 305 306 313 316 316 318 317 316 317 314 316 312 309 307 305 303 301 301 299 299 302 303 302 302 302 303 304 305 309 314 315 317 319 319 319 318 317
308 308 308 308 308 304 303 305 308 309 312 316 318 318 315 311 306 304 303 304 302 301 299 298 297 297 296 299 300 300 298 298 297 297 298 300 302 304 307 311 311 314 315 317
306 307 309 308 307 306 306 311 310 311 308 314 318 316 311 310 308 301 297 296 298 297 296 294 293 293 294 296 297 298 297 295 293 293 294 294 296 297 298 299 301 305 307 309
305 306 308 308 307 307 306 308 309 311 312 310 312 316 311 312 311 304 296 294 294 294 294 292 291 291 291 293 295 296 295 293 292 291 291 291 293 293 294 294 295 297 298 296
308 308 309 309 308 308 308 308 309 305 309 307 306 308 308 305 301 295 293 293 291 291 292 292 290 289 289 290 292 292 293 292 290 290 289 289 290 290 290 291 292 293 292 292
307 308 308 308 308 308 307 308 310 306 302 303 302 300 299 297 295 293 292 291 290 289 290 290 289 288 288 288 289 290 291 290 289 288 288 287 287 288 288 289 289 290 290 289
310 309 309 308 310 306 304 303 301 300 299 299 300 298 297 294 292 291 289 288 287 287 287 288 287 287 286 286 287 288 288 289 288 287 287 286 285 286 286 286 287 287 287 287
305 301 305 305 304 300 301 299 298 296 293 292 293 294 293 292 290 289 287 286 285 285 285 285 285 285 284 284 285 285 286 288 287 286 286 285 284 284 284 284 284 285 285 285
301 300 299 304 300 301 297 297 295 293 292 290 288 288 289 289 288 286 285 284 283 283 283 283 283 282 282 282 282 283 285 287 287 286 286 285 283 282 282 281 282 283 283 284
298 297 299 300 297 297 296 294 292 290 289 287 287 286 285 285 285 284 283 282 281 281 281 281 281 281 281 281 281 281 282 284 286 286 285 284 284 283 282 281 280 280 280 281

GFSCGP_925_thetae_102.txt.gz
Theta_e
306 306 310 313 314 313 313 314 316 317 317 318 318 319 319 319 319 320 320 320 320 321 321 320 320 321 321 324 330 333 334 335 332 332 334 332 329 330 330 329 330 331 330 329
306 307 308 310 312 311 311 313 314 314 314 314 315 316 316 317 318 318 319 320 321 321 321 321 320 320 321 322 328 331 333 335 333 333 332 331 331 329 330 327 330 330 329 328
307 307 306 308 310 311 311 312 313 314 313 313 314 316 316 316 316 316 317 317 317 318 319 320 321 320 321 322 326 330 332 334 333 333 332 330 330 328 329 328 327 328 329 328
308 310 310 310 310 310 311 312 312 312 312 315 317 315 316 316 316 316 317 318 318 318 318 318 319 321 320 322 325 328 330 333 332 333 331 329 328 328 327 327 326 326 326 327
312 312 311 312 311 311 312 311 311 312 314 317 317 319 317 315 316 319 323 324 324 324 323 322 321 319 319 320 325 328 329 331 332 332 331 329 329 329 328 326 326 326 326 327
314 313 312 312 313 310 315 316 317 318 318 321 318 318 317 318 319 322 325 324 324 325 325 324 322 320 320 319 324 329 330 331 332 332 330 330 330 328 326 325 326 325 324 324
315 317 315 315 318 317 317 318 322 323 323 320 316 318 317 320 325 325 325 324 325 326 327 327 325 323 321 321 328 330 330 331 331 329 329 329 328 328 327 325 325 324 323 323
313 316 317 316 315 316 317 316 319 317 319 319 320 321 322 325 325 324 324 324 325 326 328 329 328 326 322 326 330 330 330 330 328 327 329 328 326 328 326 324 324 324 323 322
313 313 315 315 315 315 317 320 317 321 320 322 318 319 320 323 324 325 324 325 326 325 325 328 330 328 323 328 330 330 329 329 327 325 325 325 328 327 325 324 324 323 322 321
311 315 315 315 315 316 316 317 320 320 324 323 319 321 323 326 325 325 325 325 325 323 321 321 331 328 323 328 330 330 329 328 325 325 324 326 327 326 325 323 322 322 322 321
312 314 318 316 316 317 319 319 319 319 322 324 322 326 325 322 321 323 323 323 323 321 316 316 322 328 326 328 330 328 327 326 324 323 324 327 327 326 324 323 322 322 321 320
313 316 318 316 314 315 316 316 317 321 321 320 321 320 323 318 318 321 322 323 320 317 311 310 314 322 326 328 328 326 325 324 323 322 323 326 326 325 323 323 323 322 320 320
314 316 318 318 317 316 316 317 318 319 320 321 322 320 319 316 316 320 322 321 318 313 309 308 309 312 319 324 324 325 324 322 321 321 323 324 324 324 323 322 322 321 321 320
311 313 315 316 317 317 318 316 316 317 320 318 320 318 317 315 316 319 321 318 316 312 307 306 305 308 309 311 320 322 322 321 321 322 323 322 322 323 322 321 321 321 321 320
310 311 310 310 311 312 312 312 311 311 312 315 313 315 315 317 319 319 319 314 312 311 305 303 303 303 305 306 307 309 320 321 322 322 322 322 321 321 320 320 320 320 320 320
309 309 307 307 309 310 309 308 306 307 312 315 316 317 318 314 313 312 311 309 308 305 303 300 300 300 303 303 303 304 305 306 310 311 313 321 321 320 320 320 319 319 319 319
308 308 306 308 306 306 306 307 308 310 311 315 318 319 316 306 302 301 302 303 302 301 299 297 296 297 299 300 301 300 299 300 300 301 302 305 308 310 314 318 319 320 320 320
307 307 307 307 307 304 306 309 309 309 313 315 317 313 308 304 300 297 297 298 297 297 296 294 293 294 296 298 298 297 297 297 296 296 297 298 300 301 304 306 308 311 313 316
308 307 308 307 306 308 312 311 311 311 312 310 312 313 311 307 306 299 295 294 294 294 295 293 292 291 292 295 297 296 296 295 294 294 294 295 295 297 298 298 299 301 302 302
308 309 308 308 307 308 311 309 309 310 314 308 308 308 312 308 315 301 295 293 293 292 292 292 292 291 291 292 295 295 293 294 293 292 292 293 293 295 295 296 295 294 293 292
309 310 310 309 310 310 309 309 309 312 311 305 304 301 300 299 298 295 292 291 290 291 291 291 290 290 290 291 292 292 292 292 292 291 291 291 292 292 293 293 294 292 291 289
309 310 310 309 310 313 305 308 311 306 301 301 300 300 299 296 295 293 291 290 289 289 290 290 290 288 288 288 290 291 291 290 290 290 289 289 290 290 291 292 292 292 291 290
311 308 309 307 307 302 300 299 297 297 297 298 299 297 296 295 293 291 290 289 288 287 288 288 288 288 286 286 287 288 289 289 289 288 289 288 288 288 288 289 290 290 291 291
306 304 307 307 301 299 299 297 295 294 294 293 293 294 294 294 291 289 288 287 286 286 286 287 288 287 286 285 285 286 287 288 288 288 287 285 285 286 287 286 286 287 288 288
304 303 301 305 302 299 296 295 295 293 293 293 291 291 291 291 290 288 287 286 284 284 285 285 286 286 285 285 285 285 286 288 288 288 287 286 285 284 283 281 283 283 282 284
300 299 302 302 297 298 296 294 292 291 290 289 290 289 288 288 288 287 286 284 284 283 283 283 283 284 283 283 283 283 284 285 287 287 286 286 286 285 285 283 280 279 280 280

GFSCGP_925_thetae_105.txt.gz
Theta_e
306 307 308 310 314 318 319 320 321 320 320 321 322 322 321 321 321 321 321 321 321 322 322 322 321 320 321 322 327 332 336 340 340 336 337 337 337 332 332 332 333 333 333 332
306 306 307 309 312 315 316 318 318 316 317 319 320 320 318 318 319 320 321 321 322 322 322 322 322 322 321 322 324 331 334 337 339 336 335 336 336 331 332 332 332 332 330 331
305 307 307 308 310 313 315 315 315 314 315 316 316 317 316 316 317 317 318 319 320 320 321 322 323 322 322 322 323 327 332 334 338 335 335 336 335 332 331 331 331 331 331 331
309 307 309 308 310 311 314 314 312 312 315 316 315 316 318 318 318 317 317 318 319 320 319 320 320 321 321 323 323 324 329 332 336 336 336 336 334 333 331 332 330 331 329 330
311 308 309 309 310 310 312 311 311 313 314 314 314 316 317 317 317 319 322 325 325 325 325 325 325 323 320 321 323 324 326 330 334 337 336 336 334 333 332 331 330 329 329 329
311 311 311 310 309 310 310 312 313 313 314 317 317 317 318 318 320 321 325 325 325 326 327 327 326 325 322 321 321 324 327 329 332 336 335 336 334 333 332 331 329 328 328 328
313 315 312 311 311 312 312 315 320 321 321 319 317 317 317 322 325 325 325 325 326 326 327 328 329 330 326 323 322 324 328 329 331 335 335 335 334 333 332 330 328 328 327 327
314 320 315 314 313 312 315 316 317 318 319 318 318 318 319 323 325 324 324 324 324 325 325 326 329 332 330 326 322 323 326 330 330 334 335 334 334 334 332 330 328 327 327 325
315 318 315 315 314 315 318 317 315 321 322 324 322 320 325 324 324 325 324 324 325 324 323 323 324 325 331 328 323 325 329 330 331 334 334 334 334 332 331 330 327 327 327 325
314 317 315 315 315 316 317 316 319 320 321 319 315 318 330 326 322 322 322 324 325 323 321 318 317 318 322 327 326 330 332 331 333 330 330 333 332 333 331 329 327 327 325 323
312 315 316 315 316 316 318 319 320 320 323 326 320 328 324 321 319 320 321 325 323 321 318 313 310 309 315 322 330 332 332 332 329 327 328 330 331 331 330 327 326 325 323 323
311 314 317 319 314 315 315 316 318 320 322 320 324 325 320 318 317 319 324 322 320 317 314 310 306 304 308 311 331 329 329 328 327 325 325 328 331 330 329 326 325 325 322 323
312 315 318 322 317 317 318 316 318 321 320 323 323 325 318 317 317 322 322 319 317 315 312 308 303 301 304 307 315 327 326 325 324 324 325 328 330 329 328 326 324 322 322 322
313 315 316 318 316 316 318 318 317 318 321 320 319 317 321 322 322 321 315 312 312 310 309 308 302 299 300 303 306 317 324 323 322 323 325 326 327 327 327 325 323 322 322 321
313 316 317 317 316 317 316 317 316 317 315 315 316 319 322 318 314 310 307 306 306 306 304 304 302 299 296 301 302 304 308 321 322 323 324 324 325 325 325 324 322 322 321 320
312 310 310 311 312 313 313 311 308 308 310 314 315 321 316 311 307 303 302 302 301 300 300 298 299 297 295 299 298 300 300 302 308 309 310 322 323 322 321 321 321 321 321 320
310 309 310 310 307 307 308 309 310 310 316 317 322 319 316 309 303 300 299 299 298 297 296 296 294 294 294 296 297 297 297 297 298 299 301 305 310 314 317 320 320 320 320 320
307 308 308 308 308 308 310 310 310 314 313 312 313 312 308 301 299 297 297 296 295 296 295 294 292 292 293 294 295 295 295 295 295 295 296 298 300 302 303 306 307 310 314 316
309 309 309 308 309 310 313 311 311 312 313 310 311 309 310 303 304 300 295 295 294 294 294 292 291 291 292 292 294 294 294 293 293 292 293 295 296 297 297 297 296 297 299 301
308 309 309 310 308 314 313 311 310 310 314 307 307 306 306 306 314 303 295 294 293 291 292 291 290 291 290 291 292 292 292 292 292 292 292 292 294 295 294 294 292 292 293 291
309 310 311 310 310 313 305 307 309 316 309 304 304 303 303 300 298 295 293 292 290 291 293 293 291 290 290 290 291 291 291 290 290 291 291 292 292 293 293 293 292 292 291 291
311 313 312 312 311 315 301 307 309 304 301 301 300 300 300 297 296 293 292 291 291 291 291 292 292 289 289 289 290 290 290 290 290 289 290 290 290 291 292 292 293 293 292 291
311 308 310 307 306 300 299 298 297 299 299 298 299 298 298 297 295 293 292 291 290 290 290 291 291 291 289 288 288 288 289 290 289 288 288 288 288 289 288 289 290 291 291 291
307 306 307 305 301 300 299 297 297 297 296 295 296 296 296 296 295 293 292 291 289 288 288 289 290 289 288 287 287 288 289 290 290 289 287 286 284 283 284 285 284 284 287 288
305 305 303 303 300 299 297 296 296 294 294 295 294 294 294 294 293 292 291 290 288 287 287 287 288 287 287 286 285 285 287 288 289 289 288 288 286 284 282 280 281 282 282 283
302 301 304 304 299 299 296 294 294 294 293 292 293 292 291 291 291 290 289 287 287 286 286 286 286 286 285 284 283 284 284 285 287 287 287 287 287 287 285 283 280 279 280 280

GFSCGP_925_thetae_108.txt.gz
Theta_e
311 307 306 306 309 313 315 317 318 319 319 320 321 320 321 322 321 321 322 322 321 322 322 321 321 321 320 320 321 336 345 345 343 342 342 341 340 338 335 335 333 332 332 333
311 310 307 306 307 310 311 316 319 320 322 321 322 323 322 322 322 322 322 322 321 322 322 322 323 323 320 320 322 329 343 345 343 342 341 340 340 337 335 333 333 333 332 334
310 310 308 305 306 308 311 314 319 320 320 318 318 320 320 320 319 319 320 320 321 322 322 322 323 323 325 323 324 325 332 344 342 341 339 338 339 334 332 333 331 332 333 332
309 310 309 306 306 308 310 313 317 318 318 315 316 317 317 318 318 318 318 319 319 320 322 322 322 322 323 325 325 325 327 335 341 340 337 337 336 334 333 333 331 332 330 331
308 311 310 307 307 308 310 314 316 315 315 314 315 316 317 318 318 318 320 325 325 326 326 326 326 325 324 323 323 326 325 331 338 340 336 336 338 335 332 333 331 331 331 329
306 309 312 307 309 308 311 313 313 312 313 316 315 316 315 316 318 320 325 325 325 326 327 327 327 328 328 325 324 323 327 329 333 340 337 337 338 336 334 333 331 330 330 329
306 311 313 308 309 310 311 312 318 320 321 319 314 314 315 322 323 324 324 326 326 326 326 325 325 326 328 330 330 323 324 327 330 339 338 337 338 336 334 333 332 329 329 329
309 318 316 312 311 310 310 312 321 318 319 318 315 319 317 321 324 324 325 325 325 324 323 321 321 321 322 324 326 324 324 325 329 335 339 337 339 336 335 333 331 328 328 328
318 318 315 315 311 313 312 314 315 320 321 325 319 324 324 323 324 325 324 325 324 322 320 317 315 315 313 317 319 322 324 325 328 332 338 336 338 335 336 333 330 330 328 327
315 322 318 317 315 313 316 315 320 321 330 332 324 327 331 326 324 323 326 324 322 319 316 314 311 308 307 312 314 317 327 324 329 333 336 337 336 335 335 332 331 329 328 326
313 317 317 315 319 319 320 320 320 320 320 328 325 333 324 322 321 325 323 321 318 316 314 311 307 304 303 306 308 312 332 331 333 336 336 336 335 335 333 331 329 329 326 325
314 318 319 317 315 315 318 320 320 323 319 322 326 327 320 324 323 322 319 316 313 311 311 308 304 301 300 303 304 307 321 330 331 331 331 332 333 332 332 330 328 326 324 323
314 316 320 319 316 316 318 316 317 320 321 323 325 327 321 318 316 314 313 310 309 307 305 305 304 301 299 300 301 302 307 326 327 327 328 330 331 332 330 328 327 325 323 322
316 316 316 322 320 318 319 319 318 317 321 320 321 325 318 314 311 308 306 305 304 303 302 301 301 301 298 298 299 299 300 306 324 325 326 328 329 330 329 327 326 324 322 322
313 320 317 318 319 316 318 317 317 317 314 317 320 320 314 310 306 303 301 301 300 300 299 298 298 298 298 297 296 297 297 300 305 314 322 326 328 328 327 326 324 323 322 322
311 314 313 316 317 317 317 310 309 316 318 319 322 319 309 305 302 301 300 299 298 298 297 296 295 295 295 296 295 296 296 296 298 300 301 307 321 324 325 323 323 322 321 321
311 311 313 310 309 311 312 312 315 313 313 314 318 314 307 302 300 298 297 297 297 297 296 295 294 293 293 295 295 294 294 295 295 296 297 299 302 308 318 321 321 321 321 321
310 309 311 308 308 317 314 313 312 312 310 311 311 310 304 300 298 297 296 295 295 295 294 293 292 291 291 292 294 294 293 293 293 294 294 295 297 297 299 305 310 312 315 311
309 311 312 312 310 313 314 311 311 313 309 307 308 307 307 302 302 297 295 294 293 294 294 292 291 291 291 290 292 293 292 292 291 291 292 293 294 294 294 292 294 296 298 298
309 312 314 313 310 316 309 305 307 309 309 305 304 305 305 305 308 298 294 293 292 292 295 294 292 291 290 291 290 291 290 290 290 290 291 292 292 293 292 292 291 291 292 291
312 313 314 314 314 311 303 304 307 313 307 303 302 302 299 299 296 295 293 292 291 292 293 294 292 291 290 289 290 290 290 289 288 289 289 290 291 291 292 292 292 291 292 292
309 313 311 312 313 311 300 304 305 302 301 301 300 300 299 297 295 294 293 293 292 292 292 293 292 290 289 289 289 290 290 289 289 287 287 287 287 288 290 291 291 291 291 290
309 308 307 305 305 300 299 299 298 299 298 298 298 298 298 297 296 294 293 292 291 290 290 291 290 290 288 287 287 288 288 290 288 287 285 284 284 284 285 286 286 288 289 289
307 306 307 305 302 300 299 297 296 297 297 296 296 296 296 296 294 293 292 291 290 289 289 289 289 288 287 286 286 286 287 289 289 289 287 285 283 282 282 283 283 283 285 285
305 305 304 302 301 299 297 296 295 295 295 295 295 293 293 294 293 292 290 289 288 288 288 287 287 286 285 284 284 284 285 286 288 287 287 287 284 282 281 280 281 281 281 282
303 302 303 302 300 299 296 294 294 294 293 293 292 292 291 291 290 290 288 287 287 286 285 285 284 284 283 282 282 282 283 284 285 286 286 286 286 285 282 280 279 280 280 280

GFSCGP_925_thetae_111.txt.gz
Theta_e
306 310 309 305 303 304 308 313 315 315 315 317 317 318 318 316 317 316 316 314 316 315 315 318 319 320 320 320 318 340 342 344 343 343 342 341 340 339 337 336 333 331 333 334
301 307 310 308 305 304 305 306 308 310 313 317 319 322 320 318 317 317 316 315 315 317 319 319 320 320 320 320 320 338 342 343 343 342 341 340 340 338 337 336 334 332 332 332
304 302 310 310 306 304 304 305 307 309 311 317 320 323 321 321 318 317 316 315 316 315 316 317 317 318 320 321 319 335 343 343 342 341 341 340 340 339 335 334 334 333 332 332
304 303 305 309 309 305 303 305 307 309 311 323 320 319 314 318 319 316 316 314 315 319 320 320 321 321 322 322 323 333 343 343 342 341 341 340 338 336 335 334 333 333 333 332
311 304 304 308 310 306 304 305 307 313 319 319 320 315 312 313 315 316 316 321 320 322 323 323 322 323 323 324 325 327 328 342 341 341 340 339 337 336 334 334 333 331 331 332
309 305 304 308 311 311 306 308 316 316 317 318 315 312 313 312 315 325 325 325 325 322 320 319 317 317 317 316 317 320 324 327 340 340 339 337 336 335 333 332 332 331 331 330
307 306 304 310 311 312 308 314 316 317 316 316 314 314 313 318 325 326 326 324 321 319 316 314 313 312 311 310 313 315 318 321 325 339 337 336 335 336 333 332 331 330 331 330
306 304 308 312 312 313 310 312 315 319 321 317 314 316 313 316 325 325 322 320 317 315 313 311 310 307 306 306 308 310 311 315 322 336 337 336 334 335 334 332 331 330 329 330
310 306 313 313 314 311 310 312 314 320 321 323 315 324 323 324 326 325 321 317 314 313 311 308 306 304 303 303 305 306 309 313 324 327 337 335 335 336 334 333 332 331 330 329
313 312 315 314 316 316 310 311 316 321 324 327 322 327 329 321 326 321 316 313 312 310 308 305 303 302 301 302 303 304 308 313 330 327 337 336 336 337 335 334 332 331 330 328
314 311 318 318 318 315 318 318 319 321 323 326 329 329 320 316 319 316 313 309 306 305 304 303 302 300 299 300 301 302 304 309 326 331 336 336 336 336 334 334 332 330 329 327
313 313 320 319 317 317 317 319 318 323 324 322 325 320 316 312 311 310 309 306 304 302 301 300 300 299 299 299 299 299 301 304 311 328 332 335 335 334 333 333 331 330 328 327
314 317 319 317 317 317 318 317 319 320 320 324 325 320 311 309 306 305 304 303 302 300 300 299 298 297 298 298 298 298 298 300 305 322 328 330 332 333 332 331 329 328 326 325
315 316 318 320 320 318 320 319 318 320 321 322 321 316 310 307 305 303 302 300 299 299 298 297 296 296 296 297 297 296 297 297 300 306 316 322 328 330 330 329 326 325 324 323
312 316 314 315 316 317 316 316 316 318 318 320 315 312 308 305 303 301 299 298 298 298 297 296 295 295 295 296 296 296 295 296 297 299 302 304 316 327 328 327 326 324 323 322
311 316 312 315 314 316 316 314 314 315 318 318 314 310 305 301 298 297 297 296 296 296 295 295 294 293 293 294 295 295 295 294 295 296 297 298 302 308 319 324 323 322 322 322
311 311 313 314 312 315 317 313 311 311 311 311 312 311 304 299 297 295 295 295 295 296 295 293 292 292 292 292 293 293 293 294 293 294 295 296 297 297 296 306 319 321 321 322
310 312 311 310 310 318 310 308 307 307 307 307 308 305 300 297 295 294 293 293 293 294 295 293 291 291 291 291 291 292 292 292 292 292 293 293 294 294 294 294 294 300 304 307
310 311 312 312 316 315 309 305 305 309 306 304 304 303 301 299 300 294 292 292 292 293 294 292 291 290 290 290 291 290 290 290 290 290 291 292 292 292 292 292 291 291 293 291
310 310 313 312 314 314 305 301 302 306 305 303 302 300 299 303 301 295 292 292 292 292 293 291 290 289 289 289 290 290 289 288 288 288 288 290 292 292 291 291 292 292 290 290
308 308 309 312 313 307 300 301 303 308 304 303 301 299 297 296 294 293 292 291 291 291 292 291 288 287 287 287 288 290 289 288 286 286 287 288 290 291 291 291 293 292 291 291
308 310 306 307 308 306 299 301 303 303 300 300 300 299 297 295 294 293 292 291 290 289 290 289 288 286 286 285 286 287 288 289 287 285 285 285 286 286 288 289 289 290 290 289
307 307 304 303 302 300 298 299 298 297 298 297 297 297 296 296 294 293 291 289 288 288 288 288 286 285 284 284 284 285 286 289 289 286 284 283 283 284 284 284 285 286 286 287
307 306 303 303 300 299 298 296 296 296 297 295 293 293 295 294 292 290 289 287 287 286 286 285 284 283 283 282 283 283 284 286 287 287 284 283 282 281 281 282 282 283 283 283
304 302 303 301 299 297 296 296 295 294 294 293 292 290 291 290 289 288 287 286 285 285 284 283 282 282 281 280 281 282 283 284 285 286 286 284 282 280 280 280 280 281 282 282
299 300 302 300 300 297 295 294 294 293 292 290 290 289 288 288 287 286 285 284 284 283 282 281 281 280 279 278 279 280 282 283 283 284 284 284 285 282 280 279 279 280 281 281

GFSCGP_925_thetae_114.txt.gz
Theta_e
300 300 301 307 303 302 303 302 303 306 309 311 313 314 315 314 315 316 316 314 312 313 314 315 317 317 318 319 317 327 340 342 343 343 341 340 341 340 338 338 337 335 335 333
304 301 301 301 307 307 304 303 302 304 307 308 310 319 317 317 317 315 316 313 313 312 312 312 314 316 316 316 315 325 337 341 342 342 341 340 339 338 337 337 336 334 334 334
307 308 304 302 302 308 307 304 303 302 303 305 310 318 319 319 318 318 317 314 313 314 313 320 321 321 322 323 323 334 338 341 342 342 341 340 338 337 337 337 336 335 334 332
308 309 309 306 303 304 313 307 304 303 304 306 318 322 318 314 314 318 315 313 318 322 321 320 319 316 315 316 319 325 338 341 342 342 340 338 337 336 337 335 335 335 332 331
307 308 309 310 303 305 310 310 306 304 304 314 316 323 317 310 312 316 321 324 320 317 315 314 312 311 309 310 312 316 321 331 341 340 340 338 338 337 336 334 334 334 333 332
308 307 308 307 305 305 309 311 312 314 316 317 316 320 312 315 319 324 323 319 316 312 310 308 307 306 306 306 307 311 315 319 323 337 339 338 338 337 334 333 332 332 333 332
307 307 305 306 304 306 311 312 309 314 317 316 314 320 316 323 324 321 318 314 311 308 306 305 303 303 303 303 304 307 308 313 318 321 334 338 338 336 335 333 332 331 330 331
308 307 304 306 305 307 311 310 310 313 317 317 314 315 315 324 319 316 313 309 308 306 304 303 302 301 300 302 302 304 306 308 312 320 323 335 336 335 334 333 332 332 331 331
309 306 308 310 313 314 313 312 311 316 318 318 313 322 320 316 315 312 310 308 305 304 302 301 300 299 299 300 301 302 303 305 309 315 326 327 335 334 333 333 333 332 332 331
313 311 310 311 314 314 315 311 313 314 316 317 320 322 320 317 312 310 308 306 304 301 300 300 299 299 299 299 299 300 301 302 306 312 324 327 334 333 333 332 332 332 331 330
314 313 311 311 316 315 314 315 317 315 318 318 327 317 310 308 308 305 306 303 302 301 300 299 299 298 298 298 298 299 299 300 302 307 321 331 334 333 333 333 333 332 331 330
313 312 313 319 316 317 316 317 317 312 320 322 321 314 306 303 304 303 303 302 300 299 299 298 297 297 297 297 298 298 298 298 300 303 312 325 332 333 332 332 332 331 330 330
314 316 318 319 316 317 317 317 317 318 317 323 321 315 306 305 303 302 301 300 299 298 297 296 296 296 296 296 296 297 297 297 298 300 304 311 320 329 330 331 331 329 329 328
314 313 314 315 316 316 320 317 318 319 320 315 314 311 306 303 301 300 299 298 297 296 296 295 295 294 294 295 295 295 296 295 296 298 299 301 305 317 326 328 329 328 328 327
311 313 313 316 315 315 313 318 317 319 315 314 310 307 303 300 299 298 297 296 296 296 295 294 294 293 293 293 293 294 294 295 295 295 296 297 300 305 321 324 325 326 326 326
310 313 312 314 313 312 312 311 312 315 313 310 307 305 300 297 296 295 296 296 296 296 294 293 292 292 292 292 292 292 293 292 293 294 294 295 297 298 301 311 321 323 324 323
308 310 313 314 313 313 309 309 309 308 307 310 311 305 299 296 294 294 294 294 295 296 293 292 291 291 291 291 291 291 291 291 291 292 292 293 294 295 296 296 300 306 312 319
310 310 311 313 312 310 307 306 305 305 306 304 304 300 297 295 294 293 291 292 292 295 292 291 290 289 289 290 291 290 289 289 289 289 291 291 292 292 293 294 294 292 293 295
310 311 311 315 314 310 305 303 302 305 304 304 301 302 298 296 297 293 292 292 292 293 290 288 287 288 287 288 289 289 288 287 287 287 287 289 291 291 291 292 292 293 292 291
308 308 311 313 311 309 303 300 300 303 304 303 300 298 297 299 296 293 292 292 290 290 288 287 286 285 286 286 287 289 289 287 286 285 285 286 288 290 290 291 290 292 292 291
307 308 307 311 309 305 299 300 302 306 302 301 298 296 294 294 293 292 291 289 288 288 288 286 285 284 284 284 286 286 287 288 286 285 285 285 287 286 287 289 291 291 292 291
308 308 304 306 304 304 298 299 303 300 299 298 298 297 295 294 293 291 288 287 287 286 286 285 284 283 283 283 284 285 285 288 286 284 283 283 284 284 285 286 287 288 287 288
305 303 303 303 301 298 297 298 297 296 296 294 294 296 295 292 290 288 287 286 285 284 284 283 282 281 281 281 281 283 284 285 286 285 282 282 282 282 282 283 283 284 284 284
305 303 300 300 300 298 297 296 295 293 294 291 290 291 291 289 288 287 285 285 284 283 282 281 281 280 279 279 280 280 282 284 285 285 283 282 281 281 281 281 282 282 282 283
301 301 301 300 298 297 296 295 294 292 291 289 289 288 288 287 286 285 284 283 282 281 280 280 279 278 278 278 279 280 281 282 283 284 284 283 281 280 280 280 281 282 282 283
298 299 302 300 298 297 296 294 292 290 288 288 287 286 286 285 284 282 281 280 281 279 279 278 277 277 276 277 278 280 281 281 282 282 282 283 283 281 280 279 280 280 281 282

GFSCGP_925_thetae_117.txt.gz
Theta_e
300 299 298 298 301 303 304 305 304 302 302 303 302 304 306 308 311 312 312 313 314 315 313 314 315 316 313 312 323 339 341 343 343 342 340 340 340 340 339 340 340 339 339 339
305 302 303 302 301 300 302 306 305 304 304 304 302 302 305 306 310 313 314 311 312 315 314 316 320 319 319 320 314 318 338 340 342 342 341 340 340 338 339 341 341 340 340 338
306 304 304 305 303 302 300 300 305 308 307 303 301 301 302 305 311 314 315 315 313 312 321 319 314 311 311 313 317 324 334 337 340 342 340 340 339 338 336 337 340 340 338 337
305 305 308 309 308 305 304 303 305 310 311 306 309 308 312 313 314 314 313 317 316 316 314 312 309 308 307 308 312 317 329 337 339 341 340 338 338 337 337 337 337 337 337 334
304 305 306 306 307 307 308 304 307 308 310 304 302 312 310 313 313 319 316 312 309 307 306 306 305 305 304 304 307 312 317 326 335 340 341 338 337 336 335 335 335 336 336 334
304 304 305 306 306 306 305 309 311 310 308 306 304 311 315 321 322 317 311 308 306 304 303 302 302 302 302 302 304 308 312 316 321 327 336 338 337 336 335 334 333 333 333 334
306 307 306 306 307 306 307 310 311 306 309 313 311 315 315 318 314 311 309 306 304 302 301 300 300 300 300 300 301 303 307 310 314 317 322 329 336 337 337 334 332 331 332 332
307 309 305 303 306 303 305 309 312 311 314 314 314 319 320 313 310 309 307 304 302 301 300 299 299 299 299 299 300 301 303 305 309 311 313 319 326 336 336 331 332 332 332 332
311 309 306 310 311 308 310 309 308 311 314 317 316 321 313 309 308 303 305 304 303 301 300 299 299 299 299 299 299 300 301 302 304 307 311 315 321 327 335 334 333 332 332 331
311 314 310 310 310 312 312 312 312 311 315 316 319 315 312 308 307 304 303 302 302 300 299 299 298 298 298 298 298 298 299 300 300 303 307 313 320 325 333 333 333 333 332 331
312 313 310 310 311 314 314 314 313 313 316 320 320 314 308 305 305 303 302 301 301 300 298 297 297 297 297 297 296 297 297 298 298 300 303 308 316 328 332 332 332 332 331 331
313 313 313 314 313 315 315 313 312 311 314 319 314 310 305 303 302 302 300 299 298 298 297 296 296 295 295 295 296 295 295 296 297 298 300 302 307 319 331 332 331 330 329 330
313 316 314 315 316 315 316 316 316 316 317 317 317 311 305 304 301 300 298 298 297 296 295 295 294 294 294 294 294 295 294 294 295 296 297 299 301 306 317 326 330 330 329 328
313 314 314 315 316 315 318 316 317 315 314 312 310 307 303 301 299 298 297 297 296 295 294 294 293 293 293 293 293 293 293 293 294 295 295 296 298 299 304 315 326 328 328 327
311 314 311 310 311 311 313 319 316 315 313 311 307 303 300 298 298 297 296 297 296 295 294 293 292 292 292 292 292 292 291 291 291 293 293 294 295 297 298 306 315 321 325 327
308 313 311 311 308 306 307 308 310 309 306 305 303 301 298 296 295 295 295 296 295 293 292 291 291 290 291 291 291 290 290 290 290 290 290 292 293 294 295 297 300 304 311 319
308 310 313 314 311 311 306 306 306 305 306 308 305 300 297 295 294 293 294 294 294 291 289 289 289 289 289 289 290 289 289 288 289 289 289 289 291 292 292 293 295 296 295 296
310 310 310 313 313 308 305 302 304 303 303 303 300 298 295 293 293 292 292 292 293 289 288 287 286 287 286 287 288 289 287 287 286 286 287 288 288 289 291 291 291 292 293 293
307 310 314 313 309 308 304 301 302 304 303 301 301 298 296 294 295 292 291 290 290 288 286 285 284 284 285 285 286 288 287 286 285 285 285 285 287 288 288 289 290 290 291 292
306 306 312 312 310 309 303 299 300 301 302 300 297 296 295 298 295 292 289 288 287 287 285 284 283 283 283 284 285 286 287 285 284 284 283 284 285 285 287 288 288 289 291 291
306 306 306 309 308 304 298 299 302 306 301 300 296 294 292 292 291 289 286 284 285 284 283 283 282 281 281 282 283 284 285 287 284 282 283 283 284 284 284 285 288 289 287 287
304 305 304 305 303 304 297 299 302 299 297 298 297 294 293 291 288 286 284 283 283 283 282 281 281 280 280 280 281 281 283 285 286 283 282 282 282 282 283 284 284 285 286 285
303 301 302 301 300 297 296 297 296 295 292 291 294 294 290 288 287 286 284 283 282 281 280 280 279 279 279 279 279 280 280 283 284 285 282 281 281 281 281 282 283 284 284 284
303 301 300 299 299 297 296 294 292 291 289 289 290 289 287 286 285 284 283 282 281 279 279 278 278 278 277 278 278 279 280 281 282 283 283 281 281 280 281 281 282 283 283 283
299 300 297 298 297 296 295 293 291 289 288 288 288 286 286 284 283 282 281 280 279 278 277 277 277 277 276 277 278 279 280 280 282 282 282 282 281 280 280 280 281 281 282 283
297 299 299 298 296 296 295 292 289 288 287 286 286 284 284 283 281 280 279 279 278 277 276 276 275 276 275 276 277 279 280 280 280 281 281 281 281 281 280 280 280 280 280 280

GFSCGP_925_thetae_120.txt.gz
Theta_e
299 299 298 297 298 300 301 302 302 302 303 304 304 303 302 303 303 302 307 307 309 309 311 313 314 314 311 311 324 339 342 342 341 339 337 336 336 335 334 333 332 331 332 332
303 301 301 301 300 299 299 300 300 301 302 303 304 306 303 302 302 301 304 305 308 309 313 315 312 312 313 315 316 313 334 342 342 341 339 339 338 337 336 336 336 335 334 336
302 301 303 303 304 303 303 302 302 300 300 301 306 307 304 303 302 301 302 308 312 313 314 311 309 307 308 310 312 314 318 334 341 341 340 340 339 338 337 337 337 337 337 338
303 303 304 306 307 305 305 303 303 303 303 307 306 311 306 304 304 313 310 307 305 304 304 304 304 305 303 304 310 313 318 328 336 341 340 339 338 337 337 336 336 338 340 339
304 304 305 305 305 306 306 306 306 305 305 307 308 307 303 305 317 312 308 306 304 302 300 300 300 301 301 302 305 309 312 319 329 338 340 340 338 338 337 337 336 337 334 336
303 302 303 304 304 304 305 306 306 307 309 311 308 305 306 315 315 311 307 304 303 302 301 301 300 300 300 300 301 305 307 310 316 327 332 335 337 337 336 335 335 334 335 334
304 305 305 305 306 305 305 306 305 306 306 312 308 304 309 309 309 308 306 304 302 301 300 300 300 300 300 300 300 302 303 305 311 316 319 324 329 332 336 335 334 333 332 333
306 308 304 304 306 306 304 305 307 310 312 315 313 313 312 307 305 303 303 303 302 301 300 300 299 299 298 299 299 299 300 302 303 309 315 317 319 323 328 334 333 333 333 333
311 309 306 308 307 305 305 307 305 308 310 312 317 312 309 305 303 302 301 301 301 300 299 298 298 298 297 297 297 298 298 299 300 302 305 310 315 318 321 328 333 332 332 329
312 312 310 310 309 308 307 311 313 310 315 315 318 312 308 304 303 301 300 299 299 299 298 297 297 297 296 296 296 296 296 297 298 299 301 304 306 311 318 324 330 332 333 328
312 314 311 311 311 309 313 312 313 313 314 317 317 311 306 303 302 300 299 298 297 297 296 296 296 295 295 295 295 295 295 295 296 297 298 301 303 306 315 323 327 330 331 332
310 314 313 312 311 312 315 312 311 310 310 315 308 306 304 301 300 299 298 298 296 295 294 294 294 294 294 294 294 294 293 293 294 295 296 297 299 301 305 314 322 329 329 330
311 315 315 310 313 314 315 315 315 313 313 315 312 307 302 300 299 298 298 296 295 295 294 293 293 293 293 293 292 292 292 292 292 293 294 295 296 297 299 303 313 323 328 327
312 312 309 309 310 313 313 315 315 313 310 308 307 303 300 299 298 297 297 295 294 293 292 292 291 291 291 291 291 291 291 291 291 292 292 293 294 294 296 298 304 311 320 325
310 313 311 309 307 308 308 312 313 311 310 307 303 300 298 296 296 296 296 294 292 291 291 291 290 290 290 290 290 289 289 289 289 291 291 291 292 293 293 295 297 301 308 312
309 312 312 310 312 306 304 304 307 307 305 303 301 298 296 295 294 294 294 293 291 289 288 288 288 288 288 289 290 288 287 287 287 288 288 290 291 291 291 292 293 294 297 302
308 310 311 310 309 307 304 304 303 303 302 304 302 298 296 294 293 292 292 292 289 288 287 286 286 285 286 286 288 288 286 286 286 286 286 287 288 290 290 290 290 291 292 293
307 311 309 312 311 308 304 303 303 301 301 300 297 296 294 293 291 291 290 290 288 286 285 284 284 283 284 285 286 287 285 284 284 284 284 285 286 287 288 289 290 289 290 290
306 308 313 310 308 307 305 300 302 303 301 299 299 296 294 294 293 289 287 287 286 285 284 283 282 282 282 282 284 286 287 283 282 282 282 283 284 285 285 286 287 288 288 288
305 305 312 309 310 308 301 298 299 301 302 297 296 294 293 296 293 289 285 284 283 282 282 282 281 280 280 280 282 284 285 285 282 281 281 281 283 283 284 285 286 286 287 287
305 305 306 308 306 303 297 298 300 305 300 296 293 291 291 291 288 285 283 281 281 281 281 280 280 279 279 279 280 281 283 283 284 282 281 281 281 282 282 283 284 285 286 286
302 304 304 306 304 304 297 299 301 299 296 296 292 292 288 287 286 284 281 281 281 280 279 279 279 279 278 278 279 280 280 282 283 283 281 281 280 281 282 282 283 283 284 285
303 300 301 300 299 296 294 295 294 291 291 292 292 289 288 286 285 284 282 281 279 279 278 278 278 278 278 278 278 278 279 281 282 282 282 280 280 280 281 281 282 283 283 283
302 300 299 299 297 295 293 291 290 289 289 290 288 287 286 285 284 282 281 280 278 277 277 277 277 276 276 277 277 277 278 280 281 281 281 281 280 280 280 280 281 281 282 282
298 298 297 298 297 295 292 290 289 288 288 287 286 285 284 283 282 281 280 279 277 276 276 276 276 275 275 276 277 278 277 279 280 280 280 280 280 279 280 279 279 279 280 280
297 298 298 293 295 294 293 289 288 288 287 286 284 283 282 281 280 279 278 277 276 275 274 274 274 274 274 274 276 277 277 278 278 279 279 279 278 279 279 279 279 279 278 278

GFSCGP_925_thetae_123.txt.gz
Theta_e
301 301 301 302 302 302 303 303 302 302 303 302 303 303 304 304 305 305 307 306 305 305 308 312 316 315 312 314 330 339 342 340 337 335 335 335 334 333 333 333 333 332 332 335
303 303 302 301 301 301 302 303 303 303 303 304 304 304 304 304 305 307 307 306 305 305 307 314 312 310 310 311 313 323 335 342 340 338 336 336 335 335 334 333 333 333 332 331
303 303 302 302 303 303 303 305 305 305 304 304 305 305 306 307 308 310 309 308 307 307 308 307 307 307 307 307 309 313 317 336 341 341 340 338 338 337 335 334 334 333 333 332
304 303 304 304 304 304 306 305 304 305 306 307 305 306 307 309 311 311 307 305 304 304 304 304 304 304 304 304 306 310 316 320 331 339 340 338 339 338 337 336 335 334 335 334
307 305 306 307 305 306 307 305 305 306 307 307 305 308 308 310 309 310 307 304 303 302 302 303 303 302 302 302 304 308 313 315 323 331 338 339 338 339 339 337 335 335 337 335
304 303 304 305 304 304 305 306 307 308 308 309 309 310 310 308 307 306 304 304 302 302 301 301 300 300 300 301 303 305 308 309 312 322 329 334 338 338 336 338 337 336 336 335
306 306 305 304 306 305 306 307 307 309 313 310 309 310 311 307 304 303 302 301 301 301 300 301 300 299 299 299 300 301 303 304 306 310 315 319 324 327 330 337 336 335 334 333
310 310 305 305 306 305 308 307 305 306 307 307 307 316 310 305 303 301 299 299 298 299 299 299 299 298 298 298 298 299 300 301 302 305 307 313 316 316 319 323 329 335 334 333
312 311 307 305 306 307 306 307 306 307 306 309 313 311 309 303 301 300 299 298 297 296 297 298 297 297 297 297 297 296 298 299 300 301 303 305 307 311 314 316 321 327 333 333
310 315 310 310 309 309 310 309 312 310 313 317 316 311 306 302 301 300 299 297 296 295 294 295 296 295 295 295 295 295 295 296 296 298 299 300 302 307 311 313 318 323 328 331
309 313 311 310 312 312 312 312 312 312 314 317 316 310 304 301 300 299 298 296 295 295 294 293 293 293 293 293 294 294 294 294 294 295 296 298 298 299 302 305 311 317 325 330
309 312 313 313 311 311 313 314 313 315 314 315 313 306 302 300 299 298 296 295 294 293 293 292 291 291 292 292 292 292 292 293 293 293 294 295 296 296 298 300 304 311 320 328
310 311 311 308 310 308 314 315 316 313 313 313 316 306 300 298 297 297 294 293 292 292 291 291 290 290 291 291 290 290 291 291 293 293 293 293 293 294 294 296 298 303 311 319
310 309 307 308 308 307 310 312 313 315 314 308 305 301 298 297 296 296 294 293 291 291 290 289 289 289 289 290 288 289 289 289 291 291 291 291 292 293 293 293 294 296 298 304
310 314 312 309 307 305 305 308 309 307 309 309 302 299 297 295 295 294 293 291 290 289 288 288 288 287 287 288 289 287 287 287 289 289 290 289 290 291 292 292 292 293 294 295
309 312 312 310 309 306 304 304 305 305 303 301 300 297 296 294 293 292 291 290 289 288 287 286 286 285 286 287 288 286 286 286 287 287 288 288 289 289 290 290 291 291 291 291
308 311 312 312 310 308 305 303 303 302 301 304 302 298 295 293 291 290 290 288 287 287 286 285 285 284 284 285 286 287 284 284 285 285 285 286 287 287 288 288 289 290 289 289
307 309 311 312 312 309 305 303 301 301 301 298 297 296 294 291 289 288 287 286 286 285 285 284 282 282 282 283 285 286 285 284 283 283 283 284 285 285 286 287 287 288 288 288
305 307 312 311 309 307 305 300 302 303 300 298 299 296 294 292 293 288 286 285 284 283 283 282 281 281 281 282 283 284 284 284 283 282 282 282 283 284 284 285 286 286 287 287
305 306 312 309 310 309 301 298 299 301 302 296 294 295 295 296 297 289 284 282 282 282 282 281 281 280 280 281 282 283 283 283 283 282 281 281 282 282 283 284 284 285 285 286
304 305 307 308 307 303 297 298 300 306 302 294 293 291 293 291 289 285 282 281 280 280 280 280 280 280 279 280 281 281 282 282 282 282 281 281 281 282 282 283 284 283 284 284
303 305 304 306 306 306 296 300 302 299 296 294 292 290 289 287 286 284 282 281 280 279 279 279 279 279 279 279 280 280 281 282 282 282 281 281 280 281 282 282 282 283 283 283
303 301 302 301 300 296 294 295 294 295 295 293 291 289 288 287 285 283 282 280 279 278 278 278 278 279 278 278 278 279 280 281 282 281 281 281 281 281 281 281 281 282 282 282
302 300 299 299 297 295 293 291 291 292 293 291 289 288 287 286 284 282 281 280 278 277 277 277 278 278 277 277 277 277 279 280 281 281 281 281 281 280 280 280 280 280 280 281
300 299 299 298 297 294 292 291 290 289 288 287 286 286 285 284 283 281 280 278 277 277 276 276 276 276 276 276 276 276 278 279 280 280 280 279 280 279 279 279 279 279 278 278
298 298 299 299 297 296 293 290 289 289 287 286 285 284 282 282 281 280 278 277 276 276 275 275 275 274 274 275 275 275 276 277 278 278 278 278 278 278 278 278 278 277 276 277

GFSCGP_925_thetae_126.txt.gz
Theta_e
305 306 307 307 306 305 305 305 305 306 307 306 306 306 307 308 307 308 309 310 310 310 310 308 307 310 316 316 319 317 323 337 340 339 337 337 337 336 336 335 336 336 336 336
308 308 306 304 304 304 305 305 306 306 306 306 306 307 308 307 310 313 313 312 312 311 310 311 312 313 314 315 316 318 325 331 340 340 337 335 335 335 336 336 336 336 336 336
308 307 305 306 307 306 307 307 307 307 307 307 307 307 306 309 312 309 309 308 308 307 307 309 310 311 311 312 313 315 322 335 339 341 339 337 336 337 337 337 336 336 336 337
309 307 306 307 307 306 307 307 307 307 307 307 307 309 308 311 311 307 305 305 304 303 303 304 306 307 307 307 308 313 320 325 336 341 341 341 340 341 340 339 339 338 336 336
310 308 309 308 308 307 307 307 307 307 309 309 307 308 310 310 307 305 304 301 301 301 301 302 302 303 303 303 305 308 314 320 324 334 338 340 341 341 341 340 340 337 336 337
309 308 307 308 307 307 307 308 308 309 310 311 309 311 313 309 306 304 302 301 300 298 299 299 300 300 301 301 302 304 307 309 314 320 327 337 338 341 340 340 340 338 336 336
311 309 308 307 309 308 308 310 311 310 315 311 309 309 308 305 304 303 301 300 298 298 296 297 298 299 299 300 300 302 303 305 307 312 313 317 321 325 329 333 336 338 336 336
313 314 309 308 310 310 311 310 309 310 309 311 309 316 310 306 303 301 300 299 297 296 295 294 296 296 297 298 298 299 300 301 303 306 308 309 312 314 317 320 323 330 333 336
313 313 310 308 309 310 312 311 308 310 312 314 315 313 309 304 302 301 299 297 296 295 294 294 293 293 294 296 296 297 299 298 300 302 305 306 306 310 313 314 317 319 323 329
311 314 311 311 311 310 311 312 314 314 315 315 317 313 310 304 302 301 298 296 295 294 293 292 292 292 292 293 295 295 297 298 298 298 301 302 303 304 305 307 307 309 316 321
311 313 313 312 313 314 317 315 312 313 314 317 317 314 304 302 300 299 297 295 294 293 293 291 291 290 291 290 292 293 294 296 296 296 297 298 299 300 300 301 301 303 309 318
310 314 315 313 311 313 313 314 312 315 316 315 319 312 302 301 299 298 297 294 293 293 292 291 290 289 290 289 290 291 292 294 295 295 295 295 295 296 296 296 298 301 303 307
312 314 314 311 313 309 310 314 316 317 317 320 320 311 301 299 298 297 295 293 293 292 292 290 289 289 289 289 289 289 290 292 293 293 293 293 293 294 294 294 294 295 297 299
311 311 312 313 309 307 308 309 312 314 322 317 309 304 300 298 297 296 294 292 292 291 291 290 290 289 288 289 288 288 289 290 292 293 293 293 292 292 293 293 293 293 293 293
311 314 310 309 309 307 307 307 309 310 311 313 305 301 298 296 295 294 293 291 291 290 290 289 288 288 287 288 289 288 288 289 290 290 292 293 293 292 291 292 292 293 292 291
310 313 314 314 311 308 306 306 308 306 304 302 301 299 296 294 293 293 291 290 290 289 288 287 287 286 286 287 288 288 288 288 289 289 289 291 292 293 292 291 292 291 292 290
311 311 313 317 311 311 309 305 306 304 304 305 306 300 296 295 293 291 290 289 288 288 287 286 285 284 285 286 287 287 288 287 287 287 287 288 290 291 292 292 292 291 290 290
309 310 311 315 314 315 306 304 302 303 302 301 299 298 296 293 291 289 288 288 287 287 286 285 284 283 284 285 286 286 286 286 285 285 285 286 287 288 289 289 290 290 290 289
308 309 313 315 313 308 306 304 305 306 301 299 300 298 295 293 294 291 287 286 285 286 285 284 284 283 283 284 285 285 285 285 284 284 284 284 285 286 286 287 287 288 288 288
307 308 311 312 313 313 306 301 300 302 306 298 298 299 298 296 301 294 286 285 284 285 284 284 284 284 283 284 284 285 284 284 284 283 283 283 284 284 284 284 285 286 286 285
307 308 312 311 311 306 300 300 301 308 305 297 296 297 298 296 292 287 284 283 283 284 284 284 284 283 283 283 283 283 284 284 283 284 283 283 283 283 283 284 284 284 285 285
306 309 310 310 311 311 298 301 306 301 298 297 296 295 293 291 288 286 284 284 283 283 283 283 283 283 282 282 282 283 283 284 284 284 284 284 283 283 282 283 283 283 284 284
307 305 307 305 305 298 297 299 299 299 298 296 295 293 292 290 288 287 285 284 283 283 283 282 282 282 281 281 281 282 282 283 283 283 283 283 283 283 283 282 282 282 282 283
303 302 303 302 298 297 296 296 296 297 296 294 293 292 291 290 288 286 285 284 283 282 281 281 281 281 281 280 280 280 281 282 282 282 282 282 283 282 282 282 281 280 279 280
304 303 301 299 297 297 295 295 295 294 293 291 290 290 289 288 287 286 284 282 281 281 280 279 279 279 279 279 279 279 279 280 281 281 281 281 281 281 281 282 280 279 278 277
303 303 305 306 300 299 297 294 293 292 291 290 289 288 287 286 286 284 282 281 280 280 279 278 278 278 278 278 277 277 278 279 279 280 280 279 280 280 280 280 281 279 277 276

GFSCGP_925_thetae_129.txt.gz
Theta_e
310 309 310 311 310 309 308 308 308 309 309 309 309 309 309 310 311 314 314 313 312 311 311 309 310 311 312 314 316 317 319 320 323 341 341 342 340 340 339 338 337 338 340 339
310 311 310 308 308 308 308 309 310 310 309 309 309 309 309 310 314 312 310 309 309 308 307 306 306 307 310 312 314 315 316 317 321 335 340 341 340 339 339 337 337 337 338 339
311 311 308 309 309 309 310 310 310 309 309 309 309 309 309 310 312 310 308 306 305 304 303 303 303 303 305 307 308 310 313 317 319 326 338 340 340 339 339 338 337 338 338 338
311 311 309 309 309 309 311 310 309 309 310 310 309 309 312 313 312 308 306 304 302 301 300 300 300 300 301 303 304 304 308 314 321 324 329 340 339 340 338 338 337 337 338 339
314 311 310 310 310 309 310 310 309 309 310 311 310 310 314 311 309 307 304 302 300 299 299 297 298 297 299 300 301 301 305 310 314 318 321 337 338 339 337 338 338 339 339 339
312 311 310 310 309 309 310 311 312 312 312 313 311 311 315 310 306 305 302 301 299 298 298 297 295 295 296 297 298 300 303 305 310 314 315 327 338 338 338 338 340 341 340 339
313 312 310 309 311 312 311 315 317 315 316 315 310 311 312 307 305 303 301 300 298 297 296 296 294 293 293 295 296 299 301 302 305 309 310 314 321 330 329 324 324 338 338 337
314 315 311 310 311 313 313 314 315 312 312 312 312 316 315 307 304 302 300 299 297 296 295 294 293 291 292 292 295 297 300 300 302 306 306 308 311 316 318 322 326 324 327 333
315 313 311 310 311 312 315 314 314 313 313 315 317 313 310 307 304 302 299 298 297 295 294 293 292 290 291 291 292 295 298 299 300 301 303 304 306 307 310 311 313 316 318 322
314 317 313 312 312 312 313 314 316 314 317 318 315 319 317 306 302 300 300 297 295 295 293 293 291 290 290 289 291 292 295 297 298 298 299 300 301 302 303 304 304 306 308 311
313 314 315 313 314 315 316 316 315 314 315 318 319 318 305 302 301 300 298 296 295 294 293 292 291 289 289 289 290 290 293 296 297 297 298 297 298 299 299 298 298 300 301 303
312 317 318 315 313 313 314 314 316 317 317 318 321 316 303 301 300 298 296 295 294 294 293 291 290 289 289 290 289 290 291 293 295 295 296 295 296 297 297 296 295 296 296 297
313 316 318 316 317 312 311 312 313 314 321 321 323 314 302 300 299 297 296 295 294 293 292 291 290 290 289 289 289 289 290 291 292 296 296 295 295 294 295 295 294 295 294 295
311 313 316 318 315 310 310 309 310 313 319 322 314 306 302 300 299 297 295 294 294 293 291 290 290 289 288 289 289 289 289 289 290 291 294 295 295 294 294 293 294 293 293 293
313 315 314 311 310 309 308 309 309 314 314 316 308 304 300 298 297 295 294 293 292 291 290 289 288 288 288 288 288 289 289 289 289 290 291 293 293 294 294 293 293 292 291 291
312 315 313 314 311 309 308 309 310 308 307 306 304 302 298 296 295 294 293 292 291 291 290 288 287 287 287 288 288 288 289 288 288 288 289 291 292 292 292 293 292 292 291 290
312 315 314 318 313 312 313 307 308 306 307 307 309 302 298 297 295 293 292 291 290 289 289 288 287 286 286 287 287 287 288 287 287 287 288 289 289 290 290 290 291 291 290 290
312 312 312 318 314 316 308 305 305 305 304 303 301 300 299 296 293 292 290 289 289 289 288 288 286 285 287 287 287 287 286 287 286 286 286 287 288 288 288 288 289 289 288 288
310 311 313 315 316 309 307 306 306 308 304 302 302 300 297 295 295 292 289 288 287 288 288 287 287 285 286 287 287 287 286 286 286 285 285 285 285 286 286 286 286 287 287 287
309 310 313 314 314 316 311 306 304 305 309 302 302 300 299 298 301 296 288 287 286 288 288 287 287 286 286 286 286 287 286 286 286 286 285 285 284 284 284 285 285 286 287 286
311 311 312 314 314 310 305 304 304 309 308 300 301 301 300 300 295 289 287 286 285 287 287 287 286 286 285 285 286 286 286 286 286 286 286 285 285 284 284 284 284 284 285 285
309 310 311 311 312 313 303 304 307 304 301 299 299 298 296 293 291 289 287 287 287 287 287 286 286 285 284 284 285 285 285 285 285 285 285 285 285 285 284 283 283 283 283 284
309 308 311 308 307 300 301 304 302 301 300 299 298 296 295 293 291 289 289 288 287 286 286 285 285 284 283 283 283 284 284 284 285 284 284 285 284 285 285 284 282 281 281 282
306 305 307 305 300 299 299 300 300 299 299 297 296 295 294 293 291 290 289 287 286 285 284 284 284 283 283 282 282 282 282 283 283 284 283 284 284 283 284 283 282 281 279 279
308 306 304 302 299 299 299 299 298 297 296 294 293 293 292 291 290 288 288 286 285 284 283 282 282 282 282 281 280 280 281 281 282 282 282 282 283 283 282 282 281 281 278 277
306 306 306 309 302 303 300 298 297 295 294 293 292 291 290 290 289 287 286 285 284 283 282 281 280 280 280 280 279 279 279 280 280 281 280 281 282 281 281 281 281 280 279 278

GFSCGP_925_thetae_132.txt.gz
Theta_e
311 310 310 311 312 310 309 308 308 309 310 310 310 310 310 310 313 312 311 309 307 306 305 304 302 302 303 304 305 307 310 311 312 315 319 323 338 340 340 341 341 341 342 339
311 310 310 311 309 309 309 309 310 311 311 311 310 309 310 313 312 309 308 306 305 303 302 301 300 299 300 301 301 303 305 307 308 311 318 323 325 338 339 341 340 340 343 340
311 312 311 310 310 310 310 311 311 311 310 310 310 310 309 313 310 308 306 304 303 300 300 300 299 297 297 297 299 300 301 303 305 308 313 318 323 330 338 340 340 340 340 343
311 312 311 310 310 310 310 312 311 311 311 311 310 310 310 314 311 307 305 303 301 299 298 298 297 295 295 296 296 297 299 301 304 307 311 315 319 325 336 338 340 339 339 342
311 311 311 310 310 311 311 311 311 312 311 312 312 311 314 313 310 307 304 302 299 298 297 296 295 294 293 293 293 295 297 301 303 304 309 313 318 326 334 338 339 339 338 339
310 312 311 311 311 310 311 311 313 315 314 316 314 311 314 311 306 305 302 301 298 297 296 294 294 293 292 292 292 293 295 300 301 303 308 312 318 324 334 335 338 338 340 340
311 311 312 310 311 311 312 314 319 319 319 316 312 312 313 307 304 303 301 299 297 295 295 294 293 292 291 291 291 292 293 299 300 302 306 310 316 321 321 328 326 323 327 335
314 316 312 311 311 313 315 314 316 316 313 315 314 317 312 306 303 301 300 299 296 294 294 293 292 291 290 290 290 290 291 296 300 300 304 306 309 310 311 314 315 320 321 320
318 315 313 311 311 311 314 315 314 316 315 317 315 312 310 306 303 301 298 297 295 294 293 293 291 290 290 290 290 290 290 291 298 300 301 303 303 304 305 307 308 307 318 315
315 319 313 311 311 311 312 314 316 316 316 318 316 320 315 306 302 301 298 296 294 294 293 292 291 290 289 289 289 289 290 291 295 296 299 299 299 299 300 301 302 305 303 309
313 314 315 313 314 313 315 314 314 314 317 320 319 316 305 302 301 299 297 296 294 294 292 291 290 289 289 289 289 289 289 290 292 296 296 297 297 297 297 296 297 297 301 302
313 317 319 315 313 314 315 316 317 320 318 318 322 314 303 302 300 298 296 294 294 293 292 290 289 289 289 289 289 289 289 289 291 296 296 295 295 296 295 295 294 295 295 296
313 317 315 316 315 313 313 315 313 316 317 319 321 312 302 300 299 297 295 294 294 292 292 290 289 289 289 288 288 289 288 288 289 292 294 295 295 295 294 294 293 293 293 293
313 314 316 321 317 313 311 309 309 311 316 319 315 305 303 300 298 296 295 294 293 293 291 290 288 288 288 288 288 289 288 288 289 290 292 292 293 294 294 293 292 292 291 291
312 316 315 313 310 310 309 309 309 313 315 319 310 306 301 298 297 295 294 293 293 292 290 289 288 288 288 288 288 288 288 288 288 288 289 290 290 291 292 291 291 290 290 289
313 315 313 313 311 310 308 309 307 308 309 308 305 301 299 297 296 295 293 292 291 291 290 288 287 288 288 288 288 287 287 287 287 287 288 288 289 289 290 290 289 289 289 288
314 314 313 314 313 313 314 308 309 308 308 308 308 303 299 297 295 293 293 291 291 290 290 288 287 287 288 289 288 287 287 287 286 286 286 287 287 287 287 288 288 288 288 287
314 314 314 316 314 317 308 307 307 306 305 303 301 300 300 297 294 292 291 290 290 290 289 289 287 287 288 288 288 287 287 287 286 286 286 285 286 286 286 287 288 287 287 287
311 313 315 314 316 309 307 306 306 308 306 304 302 300 298 295 294 292 290 288 288 290 289 288 287 286 287 287 287 287 287 287 287 286 286 286 285 285 285 285 286 286 286 286
309 310 313 315 315 316 311 307 306 307 309 304 302 301 298 297 299 295 289 288 288 289 289 288 287 286 286 286 286 287 287 286 286 286 285 286 285 284 284 284 284 285 284 284
311 312 313 314 312 311 307 306 305 309 310 303 303 301 300 299 297 291 288 287 287 289 288 288 286 285 285 285 285 285 286 286 285 286 285 285 285 284 283 283 282 282 283 282
311 313 313 312 311 314 305 305 308 305 303 302 303 302 301 294 291 290 288 287 288 288 288 287 286 285 284 284 284 284 285 285 285 284 285 284 285 285 284 282 281 280 280 281
310 309 313 308 307 303 303 305 304 302 301 300 299 297 295 293 290 289 289 289 288 287 286 286 285 284 283 283 283 283 283 284 284 284 283 284 283 284 283 283 281 279 279 279
308 306 309 306 301 301 302 302 302 301 300 299 297 295 294 292 291 290 289 288 287 286 285 285 284 284 283 282 282 281 282 282 283 283 283 283 283 283 283 282 282 279 278 278
309 307 306 303 301 300 300 301 300 299 297 296 296 295 294 292 291 290 288 287 286 285 284 283 283 282 282 281 280 280 280 281 282 281 282 281 282 282 282 282 281 280 278 277
308 307 307 308 302 303 301 300 298 296 295 294 294 293 292 291 289 288 287 286 285 284 283 282 281 281 281 280 279 278 279 279 280 280 279 281 281 281 281 281 281 281 280 279

GFSCGP_925_thetae_135.txt.gz
Theta_e
307 306 306 306 307 309 307 307 305 305 306 309 309 308 306 307 306 304 303 302 300 299 299 298 298 297 296 295 295 296 297 298 299 301 304 307 309 315 319 328 338 339 340 343
307 308 309 309 309 309 308 307 306 307 309 308 306 306 307 307 305 303 302 300 299 298 297 297 296 296 295 294 294 294 294 296 297 300 302 305 308 312 315 318 324 337 338 341
308 310 311 310 309 309 308 308 308 310 308 307 307 306 309 307 305 303 301 299 298 297 296 295 295 294 293 293 292 292 293 295 297 299 302 305 307 311 314 317 323 336 338 341
308 309 311 310 310 309 307 310 311 311 309 308 307 306 311 308 306 303 301 298 296 295 294 294 293 292 292 291 291 291 292 293 296 300 301 303 305 309 311 315 319 322 336 339
310 310 310 311 310 309 309 311 310 310 310 309 309 308 311 309 307 304 300 299 296 295 294 293 292 292 291 290 290 290 291 292 294 299 301 302 305 310 311 315 321 327 328 338
308 309 310 310 311 310 310 311 311 310 311 312 312 311 311 307 305 303 300 299 296 294 294 293 292 291 290 290 290 290 291 291 293 296 300 302 305 308 313 317 324 331 333 336
311 311 310 310 309 310 310 311 314 314 314 316 313 313 309 305 302 301 299 297 295 294 293 292 291 290 289 289 290 290 290 291 291 295 299 301 304 306 315 320 325 324 321 323
313 311 310 310 309 311 310 312 314 318 315 315 314 317 311 303 301 299 297 295 294 294 292 291 290 290 289 289 289 289 289 290 290 293 297 300 301 303 308 310 314 314 315 318
317 317 313 310 310 310 312 314 313 316 314 314 313 310 307 303 301 299 297 295 295 293 292 290 289 289 289 289 289 289 289 289 289 291 295 298 299 300 301 303 307 303 307 308
315 316 316 311 310 310 311 313 315 315 316 317 314 313 309 305 302 299 297 295 294 293 289 289 289 289 289 288 289 288 289 289 289 290 293 294 297 297 298 298 300 301 298 307
313 313 315 315 312 312 313 312 313 314 314 314 307 311 305 300 301 298 296 295 294 292 290 288 288 288 289 288 288 288 288 289 288 290 291 292 294 294 295 295 294 295 296 297
313 314 316 315 314 313 314 316 316 314 317 317 313 309 302 300 299 297 295 294 294 292 290 288 288 288 288 288 288 288 288 288 288 289 290 291 293 292 293 292 293 292 291 291
313 314 315 314 314 315 314 316 313 317 315 314 313 305 302 301 298 296 294 294 293 291 289 288 287 288 288 288 288 288 287 287 287 288 289 290 291 291 291 290 290 291 290 289
314 315 315 317 315 314 312 310 309 310 307 306 308 305 302 300 298 296 294 294 292 288 289 288 288 288 289 288 287 287 287 287 287 287 288 288 289 289 290 289 288 288 288 288
312 315 311 314 312 310 309 309 309 310 311 313 301 302 303 300 297 295 294 292 291 290 288 287 288 288 289 288 287 287 287 286 286 287 287 288 288 289 288 288 288 287 286 286
311 313 307 306 311 310 303 302 303 307 310 309 304 302 299 297 296 294 293 291 290 290 289 287 287 287 288 288 287 287 287 286 286 285 286 286 287 287 288 287 287 287 286 285
313 313 311 312 310 311 313 302 305 308 307 308 305 301 298 297 295 294 292 291 290 289 289 287 286 287 287 288 287 287 287 286 286 286 285 285 285 285 286 286 286 286 285 284
314 313 313 312 312 315 305 306 306 307 305 301 299 298 297 296 292 291 290 289 289 289 288 287 286 287 286 287 287 286 286 286 285 286 285 284 284 284 284 284 284 284 284 284
313 313 312 312 314 308 307 307 307 305 304 301 300 298 295 293 291 290 289 288 287 288 288 287 286 286 286 285 286 286 285 286 285 286 285 284 283 282 282 282 283 282 282 282
312 312 313 310 315 314 308 306 305 305 306 301 300 297 295 294 298 293 289 288 287 288 287 286 285 285 285 285 284 285 285 284 285 284 285 284 283 282 280 280 280 280 279 279
310 310 310 309 311 311 307 305 306 307 303 302 299 297 296 296 293 289 288 287 287 288 286 285 284 283 283 284 283 283 285 284 284 284 284 285 284 282 281 279 278 278 278 277
310 309 308 308 311 312 304 304 306 302 302 302 300 298 297 291 289 288 287 285 286 287 286 285 283 283 282 282 282 282 282 283 283 283 283 283 283 282 281 280 279 278 277 276
312 309 308 306 306 302 303 304 302 300 299 298 296 295 292 291 289 288 287 287 287 285 285 284 283 282 281 281 281 281 281 282 282 282 282 282 282 282 281 280 279 278 277 276
308 307 302 302 301 302 302 302 301 299 297 296 294 293 292 290 289 289 289 287 285 284 284 283 282 281 280 280 280 280 280 281 280 281 281 281 281 281 281 280 280 279 278 276
307 305 302 301 300 301 301 301 299 297 296 295 294 293 291 290 290 289 287 285 284 283 283 282 281 280 279 279 278 279 279 280 280 280 280 281 280 280 280 280 280 279 278 277
306 304 300 297 298 298 298 300 297 295 295 295 294 293 292 290 289 287 286 285 283 282 281 281 281 280 278 277 277 277 278 278 279 278 279 280 279 278 279 279 279 279 279 279

GFSCGP_925_thetae_138.txt.gz
Theta_e
306 304 305 304 305 306 307 306 305 304 305 307 305 305 305 303 302 301 299 298 297 296 295 295 294 293 292 291 291 291 291 291 292 294 296 298 301 303 305 308 310 310 313 329
305 306 307 307 307 307 306 306 305 305 307 307 305 306 304 303 302 300 298 297 296 295 294 294 293 292 291 290 290 290 290 291 292 293 296 298 301 303 305 306 309 310 311 316
306 307 308 309 308 308 307 306 306 306 308 307 306 306 307 304 302 300 298 296 295 294 294 293 292 291 290 290 290 290 290 291 292 293 295 298 300 302 304 306 308 310 313 309
305 307 308 308 309 308 308 307 309 310 308 308 307 307 308 306 304 301 299 296 295 295 293 292 291 291 289 289 289 290 290 290 291 292 294 297 300 302 303 306 308 309 311 314
306 309 309 309 309 308 308 310 310 310 309 309 309 307 308 307 306 302 299 297 294 294 292 291 291 290 289 289 289 289 290 290 290 291 293 295 300 302 304 307 308 309 311 315
305 306 306 309 310 309 309 310 311 310 308 311 311 309 309 305 304 302 299 297 295 294 292 291 290 289 289 289 289 289 290 290 290 291 293 296 299 302 304 306 308 311 315 321
307 308 308 308 309 309 309 310 311 313 312 314 313 311 307 303 301 299 298 296 294 293 292 290 289 288 288 288 288 289 289 290 289 290 292 295 298 300 302 305 309 315 321 320
308 310 309 309 309 310 309 311 313 318 317 315 313 315 308 302 299 298 297 295 294 292 290 288 288 288 288 288 288 288 288 289 289 290 290 293 295 299 300 301 303 308 311 313
312 315 313 312 308 310 310 311 312 314 314 312 311 308 305 301 301 299 296 295 295 289 288 288 288 288 288 288 288 288 288 288 289 289 289 291 292 293 297 297 298 300 304 305
310 313 313 313 309 309 311 313 315 314 318 316 314 311 305 305 301 299 296 295 294 292 286 287 287 288 288 288 288 288 288 288 288 289 289 290 290 291 293 293 293 295 296 299
310 311 313 313 312 311 312 311 312 314 315 317 310 310 305 302 298 295 296 295 293 292 285 285 286 287 288 287 287 287 287 287 287 288 288 289 289 289 291 292 291 291 292 293
312 310 310 314 313 313 313 312 313 315 316 315 308 309 300 298 297 297 295 294 293 291 287 287 287 288 287 287 287 287 287 287 287 288 288 288 288 288 288 289 289 288 289 289
312 312 312 313 312 312 316 313 316 316 317 317 310 308 301 299 297 295 295 294 291 289 286 284 286 287 288 287 287 287 287 286 286 287 287 288 288 288 287 287 287 286 286 287
312 315 313 311 313 313 313 313 309 311 311 305 307 305 303 300 298 295 294 293 287 286 287 285 285 287 288 287 287 286 286 286 286 286 286 287 287 287 287 286 285 285 285 285
313 314 312 313 314 313 312 310 309 309 308 308 301 304 301 299 297 295 294 290 290 289 287 286 286 286 287 287 287 286 286 286 285 285 285 286 286 286 286 285 284 283 283 283
312 313 309 313 311 311 307 304 305 307 309 308 304 303 299 297 296 295 293 291 290 289 287 286 286 286 287 286 286 286 285 286 285 284 284 284 284 284 284 284 284 282 281 280
312 312 310 312 308 311 312 304 302 305 307 307 306 303 297 297 296 293 291 291 290 289 287 286 286 286 286 286 286 286 285 285 285 283 283 282 283 283 282 282 282 282 280 279
312 312 311 312 312 314 303 305 304 307 305 302 300 298 297 296 292 291 290 290 289 289 287 286 286 286 285 286 285 285 285 285 285 284 282 281 280 281 281 280 280 280 280 278
311 312 312 313 314 309 307 307 306 306 305 300 299 297 294 292 291 290 290 289 288 287 287 286 286 285 284 285 285 284 284 284 284 284 282 281 280 279 279 279 278 278 278 277
313 312 313 311 314 312 308 305 304 304 306 299 298 295 293 292 294 293 289 289 288 287 286 284 284 284 283 283 284 283 284 283 283 284 283 281 280 279 278 278 277 277 276 275
314 311 311 309 313 310 306 304 304 306 305 299 296 294 293 294 293 290 289 288 287 286 284 283 283 282 282 282 283 283 283 283 282 283 282 282 281 279 278 278 277 276 276 275
311 311 308 307 310 310 304 304 306 302 300 299 296 294 293 290 289 289 288 287 286 287 283 283 282 281 281 281 282 281 282 282 282 282 281 281 281 280 279 278 277 276 276 275
310 307 307 306 305 301 302 303 301 299 298 297 296 295 292 290 289 288 288 287 286 284 283 282 281 280 280 280 280 280 281 281 281 281 280 280 280 280 279 279 278 277 276 275
307 305 302 302 300 301 301 301 298 297 295 294 294 292 291 290 288 288 288 288 284 283 282 281 280 279 279 279 279 279 280 280 280 280 280 279 280 279 279 279 279 278 277 275
304 303 301 299 299 300 300 299 296 294 293 293 292 292 291 289 289 289 288 284 283 282 282 281 280 278 278 278 278 278 279 278 279 279 279 278 279 279 278 279 279 278 278 277
304 302 299 299 298 298 297 296 295 294 293 292 291 290 290 289 289 287 285 283 282 281 281 280 279 278 277 276 277 277 278 278 277 278 278 278 278 278 277 277 277 277 277 278

GFSCGP_925_thetae_144.txt.gz
Theta_e
303 302 302 302 302 303 306 305 305 303 302 305 303 304 303 300 298 297 296 294 294 293 293 292 291 290 289 289 288 288 289 290 290 291 291 291 292 293 294 296 298 300 301 303
302 302 303 304 304 305 305 305 304 303 303 303 303 304 302 301 299 297 296 294 293 292 292 292 290 289 288 288 288 288 289 289 290 290 291 291 292 292 294 295 297 300 301 302
302 305 305 304 305 306 305 305 304 305 305 304 304 304 303 301 299 297 295 294 293 292 291 290 290 288 288 288 288 288 289 289 289 289 290 291 292 293 294 295 297 299 300 302
303 303 304 304 305 305 306 305 306 304 306 305 304 306 305 302 301 299 296 293 292 291 290 289 289 288 288 288 288 288 288 288 289 289 289 290 291 292 293 295 296 298 300 302
306 306 306 305 305 305 306 306 305 305 306 307 306 306 305 303 303 300 297 294 292 290 289 288 287 287 288 288 288 288 288 288 288 288 289 289 290 291 292 294 296 299 301 302
303 304 304 304 306 306 307 308 308 307 305 308 307 306 309 305 304 300 297 295 293 290 288 287 287 287 288 287 288 288 288 288 287 287 288 288 289 290 291 292 295 296 298 301
305 304 303 304 304 304 306 307 312 311 310 310 307 307 307 303 300 299 296 294 293 289 287 286 286 287 288 287 287 287 287 287 287 287 287 288 288 288 290 291 291 293 295 297
305 307 306 306 304 305 306 307 310 312 313 311 309 309 307 301 298 297 295 294 293 289 287 286 286 286 287 286 286 287 287 287 287 287 287 287 287 287 288 288 288 289 291 292
305 307 308 308 308 306 307 308 308 311 312 315 311 304 304 299 298 296 295 293 289 286 285 285 286 286 286 286 286 286 286 286 286 286 286 287 286 286 286 286 286 287 288 290
305 306 306 308 310 307 309 309 314 315 318 316 309 309 308 304 302 297 290 287 290 286 284 284 285 285 286 286 285 285 285 285 286 285 285 286 285 284 284 284 285 285 286 287
306 306 307 307 310 312 312 311 313 313 314 314 306 308 303 302 303 296 290 288 286 285 281 279 284 285 286 286 285 285 285 285 285 285 285 284 284 283 283 282 283 284 285 285
305 304 304 307 307 309 312 313 314 317 318 315 307 310 299 300 299 294 292 292 289 283 281 280 284 285 285 285 285 285 284 284 284 284 284 283 283 282 281 281 281 282 284 284
308 306 309 309 307 309 312 314 314 315 314 316 314 306 300 298 296 294 293 293 289 286 284 279 283 284 285 285 285 284 283 283 283 283 283 282 282 281 280 280 280 280 282 283
310 309 309 308 307 311 314 311 313 315 316 315 313 308 303 299 298 294 293 290 286 285 286 284 282 284 285 285 285 284 283 281 281 281 281 281 280 280 280 279 279 279 281 282
309 309 308 310 312 312 311 312 311 313 312 315 312 309 305 301 298 295 293 288 288 287 287 286 285 284 285 284 284 284 283 281 280 280 280 280 279 279 279 278 278 278 279 280
309 307 308 304 310 312 312 311 310 310 311 311 310 306 299 298 296 294 292 290 290 287 287 286 285 285 285 284 284 283 283 281 280 279 279 279 278 278 277 277 277 277 277 278
310 310 311 313 311 313 314 310 309 309 309 309 309 307 296 297 296 294 291 291 290 287 287 286 285 284 284 284 284 283 282 281 280 279 279 278 278 277 276 276 276 276 276 277
311 310 310 314 311 313 306 305 305 307 308 305 302 297 297 296 292 291 289 290 289 287 286 285 283 284 284 283 284 283 282 281 280 279 279 278 278 277 276 276 276 276 276 276
308 311 313 314 313 309 309 306 305 306 307 303 302 296 294 292 291 291 289 288 287 286 285 284 283 284 283 283 283 283 282 282 280 279 278 278 277 277 276 276 275 275 275 276
308 309 312 311 312 312 309 305 303 303 306 300 298 296 294 294 297 292 289 288 287 286 285 284 282 283 283 282 282 282 281 281 281 280 279 278 277 277 276 275 275 275 275 275
312 312 312 312 313 312 306 303 302 307 303 298 296 294 293 295 292 288 288 287 287 286 283 282 282 282 282 282 282 281 281 281 280 279 279 278 278 277 276 276 275 275 274 274
310 311 309 310 314 312 302 303 305 302 298 296 294 293 293 291 289 289 288 287 285 283 282 281 281 281 281 282 282 281 280 280 280 279 279 278 278 278 277 276 275 275 274 274
310 308 309 308 307 302 300 302 299 298 297 295 293 292 291 290 289 288 287 286 284 283 281 281 280 280 280 281 281 280 280 280 280 279 279 279 278 278 277 277 276 275 274 274
306 303 304 304 301 301 301 298 297 297 297 293 292 291 290 289 288 287 287 285 283 282 281 280 280 279 279 279 280 280 280 280 279 279 278 278 278 277 277 277 277 276 275 274
305 303 302 301 299 300 299 299 296 294 293 292 291 290 289 288 287 287 287 286 283 281 280 280 279 279 278 279 279 279 280 279 279 278 278 277 276 276 276 276 276 276 276 275
301 302 301 301 299 299 298 296 294 293 292 291 290 289 289 288 287 287 286 284 282 281 280 280 279 278 278 278 278 278 278 279 278 278 277 277 276 275 275 275 275 275 275 275

GFSCGP_925_thetae_147.txt.gz
Theta_e
304 305 306 306 304 304 306 306 307 307 306 307 308 306 306 303 302 301 300 299 298 296 294 293 292 291 290 290 290 290 291 291 291 291 291 291 292 293 293 294 295 296 298 300
304 306 306 304 304 305 306 307 308 307 306 306 307 307 305 303 303 302 301 298 297 296 295 293 292 291 290 290 290 290 290 290 290 290 290 291 291 292 292 294 294 295 296 298
306 307 304 304 305 306 307 307 307 308 307 306 306 308 307 304 302 299 298 296 295 295 294 293 291 290 290 290 289 289 289 289 289 289 289 289 290 291 292 292 293 295 296 298
305 304 304 305 306 307 308 306 307 308 307 310 307 312 309 306 304 301 299 297 296 294 293 291 291 290 290 289 289 289 289 289 289 288 288 289 289 290 290 291 292 294 296 298
308 305 306 306 306 306 307 307 308 308 308 308 308 309 311 306 306 305 300 297 296 293 292 292 290 289 290 289 289 289 289 289 288 288 288 288 289 289 289 290 291 292 293 295
304 303 306 307 306 307 306 306 309 308 308 310 309 309 312 311 309 304 300 297 295 293 292 290 289 289 290 289 288 289 289 288 288 288 287 288 288 288 288 288 289 289 291 292
307 309 308 305 306 306 305 307 311 312 313 313 309 309 311 307 304 304 301 297 295 292 291 290 289 289 288 288 287 288 288 288 287 287 287 287 286 287 287 287 287 288 288 289
308 310 306 305 305 307 306 307 311 314 313 313 310 311 313 304 300 299 298 296 294 292 290 290 288 287 287 287 287 287 287 287 287 287 286 286 285 285 286 285 285 286 287 288
308 307 307 307 307 308 309 309 308 310 311 317 313 315 306 301 300 298 297 296 293 291 290 289 288 287 286 286 286 286 286 286 286 286 286 285 284 284 283 283 284 285 286 287
306 308 306 307 310 309 310 309 313 314 317 318 314 314 316 306 303 299 296 295 294 289 288 288 287 286 285 285 285 285 285 284 285 285 285 284 283 283 282 283 282 285 285 286
305 307 307 307 310 312 312 312 313 314 315 318 317 316 308 307 306 301 296 293 291 290 287 286 285 285 284 284 284 284 284 283 283 283 283 283 283 282 282 281 281 282 283 284
306 309 310 307 307 309 310 310 312 316 316 317 316 319 302 302 304 301 296 294 290 288 287 284 284 284 284 284 283 283 282 283 282 281 281 281 281 280 280 280 280 281 282 282
307 309 310 309 309 310 312 314 313 314 314 316 317 319 302 300 299 298 296 295 291 289 287 285 284 283 283 284 283 282 281 281 281 281 280 280 280 280 279 279 280 280 282 281
310 310 309 312 311 311 313 313 313 314 317 316 317 316 309 303 301 298 296 293 290 289 288 287 285 284 283 283 283 283 281 280 281 280 280 279 279 279 279 279 279 280 280 280
311 312 310 310 309 312 313 313 312 314 314 315 313 313 312 308 303 299 296 291 289 289 288 287 286 286 285 284 283 283 282 281 280 280 280 279 279 279 279 279 279 279 279 280
310 311 309 307 310 312 312 311 309 311 311 312 312 313 309 302 300 297 295 292 291 290 289 287 286 285 285 284 283 283 282 281 280 280 279 279 279 278 278 278 278 278 279 279
305 307 310 311 310 311 312 311 311 311 310 311 311 311 302 301 300 297 295 293 292 289 288 287 286 285 285 284 283 282 281 281 280 280 279 279 278 278 278 278 278 278 278 278
306 309 312 313 312 313 311 306 309 310 310 310 308 303 302 300 297 296 294 293 291 289 288 287 285 284 284 284 283 283 281 280 280 280 279 279 278 278 277 277 277 277 277 277
308 311 314 312 312 311 309 307 307 308 309 306 308 301 297 295 295 294 292 292 290 288 287 285 284 283 284 284 283 283 282 281 280 279 279 278 278 277 277 277 277 277 277 276
310 310 311 312 313 312 310 306 304 305 309 302 302 300 297 297 303 301 292 290 287 286 285 284 284 283 283 283 282 282 282 281 280 280 279 278 277 277 276 276 276 276 276 276
310 312 313 313 313 312 309 305 304 308 308 301 300 299 297 299 298 293 291 289 287 286 284 283 283 283 283 282 282 282 281 281 280 280 279 279 278 277 276 276 276 275 275 275
310 312 313 312 313 311 304 303 308 305 300 299 298 297 297 294 291 291 289 287 286 285 284 283 282 282 282 282 282 282 281 281 280 280 279 279 278 278 276 276 276 275 275 275
311 309 310 310 310 303 302 303 301 301 301 298 297 295 295 293 291 290 289 288 285 284 283 282 282 281 281 281 281 281 281 280 280 280 279 279 278 278 278 277 276 276 276 276
307 305 308 307 305 303 302 299 299 299 299 296 295 294 293 293 291 290 288 287 285 283 283 282 281 281 281 280 280 281 280 280 280 279 279 278 278 277 277 278 277 276 276 275
307 305 306 306 303 301 301 300 299 297 296 294 293 293 292 291 290 290 288 286 284 283 282 281 281 281 280 280 279 280 280 279 279 279 278 278 277 277 277 277 277 276 276 275
304 306 308 311 303 303 301 299 296 297 295 293 292 291 291 291 290 289 287 285 283 283 282 281 281 280 279 279 279 279 279 279 279 279 278 277 277 276 276 275 275 275 274 274

GFSCGP_925_thetae_150.txt.gz
Theta_e
309 312 313 314 311 310 311 311 312 313 312 310 312 313 313 311 310 311 310 308 307 304 300 299 298 298 297 297 297 296 296 296 295 295 295 295 295 295 296 296 296 296 298 298
311 313 312 310 309 309 311 312 314 314 313 312 313 314 313 312 310 311 310 309 306 303 301 299 298 298 297 297 296 296 296 295 294 293 293 293 293 294 294 295 295 296 296 297
312 312 309 309 311 313 314 315 315 314 313 313 313 314 314 311 310 309 308 307 303 302 301 300 298 298 297 297 296 295 294 294 293 292 292 292 293 293 294 293 293 293 294 296
310 310 309 310 311 311 312 312 311 311 313 314 313 314 314 314 311 308 307 305 304 301 300 299 298 297 297 296 295 295 294 294 293 291 291 291 291 292 291 291 291 292 293 293
310 309 310 310 310 309 311 309 310 310 312 313 313 313 313 313 312 311 308 305 303 300 299 298 296 296 296 295 295 295 294 294 292 291 291 290 290 290 290 290 290 291 291 291
310 309 309 310 310 310 310 310 311 313 313 315 313 314 313 316 314 312 309 305 302 300 298 296 295 295 296 295 294 294 293 293 292 291 290 289 289 288 288 288 289 289 289 289
311 311 311 311 310 311 311 312 316 315 317 316 313 313 314 313 311 310 309 305 302 299 299 297 295 294 294 294 293 292 292 292 291 290 289 288 288 287 287 287 287 288 288 288
309 307 309 308 311 310 310 312 314 316 314 316 315 314 317 310 307 307 306 303 300 298 297 295 293 292 292 292 292 292 292 290 290 289 289 288 287 286 286 286 286 287 286 288
308 308 308 309 309 309 312 312 312 313 314 316 314 318 315 309 306 306 303 302 298 297 296 294 292 291 290 290 290 290 290 287 289 288 288 287 287 286 286 285 285 286 286 287
308 309 308 309 309 310 310 311 314 315 317 316 315 315 317 315 311 304 302 302 300 295 294 293 291 289 288 288 289 288 287 286 287 288 287 287 286 286 285 285 285 285 285 285
308 309 308 309 310 311 313 313 313 314 317 317 317 316 316 315 312 309 303 301 297 295 292 290 289 288 287 286 288 287 286 284 284 285 285 285 284 284 284 284 283 284 284 284
308 310 313 310 310 309 310 311 311 316 315 317 319 320 309 310 311 309 304 300 296 293 291 289 288 287 286 286 285 285 285 285 283 282 283 284 282 282 282 282 282 282 282 282
309 310 308 307 311 311 311 311 312 312 315 317 319 320 309 307 307 307 305 300 298 294 291 289 288 287 286 286 285 284 284 284 283 283 282 282 282 282 281 281 282 281 281 280
309 308 309 312 310 311 311 310 311 312 319 317 319 320 317 313 310 307 304 300 297 294 292 290 288 287 286 285 285 284 283 283 283 283 284 282 282 283 283 281 282 282 281 280
305 309 310 310 311 309 310 312 312 311 313 317 317 316 316 313 313 310 304 300 296 294 292 290 290 288 287 286 286 285 285 284 284 283 283 283 283 282 283 282 282 282 282 282
307 310 311 311 310 309 314 317 314 314 313 314 314 315 313 312 310 308 303 299 296 294 293 291 289 289 287 287 286 285 285 284 284 283 283 282 282 282 282 282 282 282 282 282
307 307 307 309 310 311 313 314 314 312 312 313 314 312 311 310 308 307 303 298 296 295 293 290 289 288 287 286 286 285 284 284 284 283 282 282 282 281 281 281 281 281 281 281
307 307 306 309 310 314 317 310 310 312 311 311 311 311 310 308 305 304 302 299 297 295 292 290 288 287 287 286 285 284 284 284 283 283 282 282 281 281 281 281 281 280 280 280
307 308 309 310 311 310 309 309 310 311 310 310 311 311 307 302 302 301 300 299 296 294 291 289 287 286 287 287 286 285 284 283 283 282 281 281 281 280 280 280 280 280 279 278
308 309 310 311 314 309 310 309 308 308 312 307 307 309 305 304 310 310 298 297 293 292 290 288 287 286 287 286 286 285 284 283 282 281 281 280 280 279 279 279 279 279 279 279
309 309 310 311 312 310 310 309 307 312 313 307 306 307 305 307 305 301 296 294 291 290 288 288 287 287 286 285 285 285 284 282 282 282 281 280 280 279 279 279 279 279 278 278
311 312 313 312 312 313 309 307 310 310 307 307 306 305 305 301 298 297 294 291 290 289 288 287 287 286 286 285 285 285 284 283 282 282 281 281 280 279 279 279 279 279 279 279
310 310 311 311 311 309 308 308 306 306 307 305 305 303 302 299 297 296 293 292 290 288 287 287 287 286 285 285 285 285 283 282 282 282 281 281 280 280 280 280 279 280 279 279
310 310 311 311 310 309 307 305 305 305 305 303 303 302 300 300 297 296 294 293 290 289 287 286 286 285 285 284 284 284 283 282 282 282 281 281 280 280 280 280 279 279 279 279
310 310 310 310 310 306 306 306 305 303 302 301 300 300 299 298 297 296 294 292 290 288 287 286 285 285 284 284 283 283 282 282 282 281 281 280 280 280 279 278 278 278 276 276
309 310 312 313 309 309 307 306 303 303 301 300 299 298 298 297 297 295 294 291 289 288 286 286 285 285 284 283 283 282 282 282 281 281 281 280 280 279 279 278 277 274 274 274

GFSCGP_925_thetae_153.txt.gz
Theta_e
315 314 315 315 316 315 314 314 314 315 315 315 315 315 316 316 314 314 314 313 312 311 308 304 304 303 303 303 302 302 301 300 300 299 299 299 299 299 299 299 299 299 299 297
315 314 314 314 314 313 312 313 314 314 315 316 316 316 316 316 315 314 314 314 313 311 307 304 303 304 303 303 302 301 300 300 299 298 297 297 297 298 298 298 297 297 297 296
314 314 313 312 312 312 314 315 316 316 315 316 316 316 315 316 316 314 313 313 312 310 308 305 303 303 303 302 301 301 300 299 298 296 296 296 297 297 296 295 295 294 294 294
312 312 312 312 311 312 313 313 313 313 314 314 314 317 315 316 315 314 313 312 310 308 305 304 303 303 302 301 300 300 299 298 297 296 296 295 294 294 293 293 292 292 293 292
312 312 311 312 312 312 312 312 312 312 313 314 314 314 314 315 315 315 313 312 310 307 305 304 302 302 301 300 300 299 298 297 296 295 294 293 293 292 291 291 290 291 291 291
312 312 311 311 311 312 312 312 313 314 314 316 314 315 314 316 319 316 315 312 309 306 304 302 301 301 301 300 299 298 298 296 295 294 294 292 291 291 290 289 289 289 289 289
313 312 311 311 311 312 312 313 316 316 316 317 315 316 315 317 315 314 314 311 308 305 304 303 301 300 299 299 298 296 296 294 294 294 293 292 291 290 290 289 288 288 288 288
308 309 310 310 310 310 311 313 314 313 313 313 313 316 319 315 312 312 312 310 307 305 304 302 299 297 296 296 296 295 293 292 293 292 292 291 290 290 289 288 287 287 287 287
309 309 309 308 309 310 311 312 312 312 313 314 313 314 315 314 312 310 310 308 306 304 303 300 297 295 294 294 294 293 292 290 292 291 290 289 288 288 288 287 287 286 286 286
308 310 309 309 310 310 311 311 313 314 317 316 315 315 319 319 316 309 306 306 305 300 301 299 296 293 292 291 293 291 288 288 289 290 289 288 287 287 286 286 286 286 286 286
307 310 310 309 310 310 311 313 312 312 314 318 318 317 316 318 317 315 308 303 302 302 297 295 294 291 290 289 291 290 289 284 285 287 287 286 285 285 285 285 284 284 284 284
309 311 314 311 310 310 310 311 313 318 315 315 319 322 316 315 316 315 310 305 301 299 295 293 291 290 288 289 288 288 288 287 285 283 285 286 285 283 284 284 284 283 282 282
308 312 312 310 309 307 309 309 310 312 314 317 319 319 315 313 312 313 312 308 303 299 295 291 290 289 288 288 286 286 286 287 286 286 283 284 286 285 284 283 284 283 282 281
308 309 309 312 309 310 312 313 313 314 317 319 319 319 316 315 315 315 312 309 304 300 296 292 291 289 287 287 287 286 284 286 286 286 287 284 285 286 286 284 285 285 284 282
307 308 308 308 308 309 309 311 310 309 310 315 317 313 313 313 315 314 313 308 303 300 296 294 292 289 288 288 289 288 288 287 287 286 286 286 286 285 286 285 285 285 285 284
308 308 308 314 310 309 312 313 315 312 311 312 312 312 313 313 313 314 312 307 303 300 297 294 293 292 290 289 289 288 288 287 287 287 286 285 285 285 285 284 284 284 284 284
310 309 310 312 308 308 310 315 313 310 310 311 312 312 311 312 312 311 310 306 303 300 297 295 293 291 290 289 288 288 288 287 287 286 286 285 285 285 284 284 283 283 283 282
308 309 309 311 308 310 310 309 311 312 312 311 311 310 311 312 311 310 309 305 302 299 297 294 292 291 289 289 288 287 287 287 287 286 285 285 284 284 284 284 283 282 282 281
308 309 310 311 309 307 307 310 311 311 312 310 311 311 312 308 307 306 305 304 301 299 296 292 290 290 289 289 288 287 287 286 285 285 284 284 284 283 283 283 283 282 282 281
308 308 310 310 309 309 309 311 311 310 311 310 309 311 310 307 312 313 304 302 299 296 294 292 289 290 290 289 288 288 287 286 284 284 283 283 282 282 282 282 282 282 282 281
311 311 313 312 311 309 308 311 310 311 313 309 309 309 309 310 310 305 302 300 296 295 294 291 290 290 289 289 288 288 287 285 284 284 283 282 282 282 282 282 282 282 281 281
311 312 312 311 311 311 309 311 311 312 310 309 308 308 309 306 304 301 298 296 296 295 292 291 290 290 289 288 288 287 286 285 285 284 283 283 282 282 281 282 282 282 282 282
313 310 312 311 312 312 311 311 310 309 310 309 308 307 307 303 302 300 296 296 295 293 292 291 290 289 288 288 288 288 286 285 285 284 284 283 283 282 282 282 282 283 282 282
311 309 311 312 311 311 311 309 308 308 308 307 307 306 305 304 302 299 297 297 295 293 292 291 290 289 288 288 287 287 286 285 285 284 284 283 283 282 282 282 281 281 281 281
311 312 312 312 311 310 310 309 309 307 306 305 305 305 304 303 301 299 298 297 295 293 291 290 289 289 288 287 287 286 285 285 285 284 284 283 282 282 282 280 280 280 276 276
310 310 313 314 311 311 310 310 308 307 306 305 304 303 302 301 300 299 298 295 294 292 290 289 289 288 288 287 286 286 285 284 284 284 283 283 283 282 282 281 279 275 274 274

GFSCGP_925_thetae_156.txt.gz
Theta_e
315 315 316 315 316 317 317 316 316 315 315 315 316 316 316 317 316 315 315 314 314 313 308 306 305 305 305 304 304 303 302 301 300 300 299 299 299 299 300 300 297 297 296 295
314 315 316 315 315 315 315 314 314 313 314 315 315 316 317 317 317 316 315 315 314 312 308 305 305 305 305 304 303 302 302 300 299 298 298 297 298 298 297 295 295 294 293 293
314 315 315 314 314 314 314 313 313 314 314 314 315 315 316 316 316 317 316 315 315 313 310 306 305 305 305 303 302 302 301 299 298 297 297 296 296 295 294 293 292 292 291 291
312 313 314 313 313 313 313 312 313 314 314 314 314 315 314 314 314 317 316 315 314 310 307 306 305 305 304 302 301 300 299 298 297 296 296 295 295 294 293 292 291 290 290 290
312 313 312 312 311 312 312 312 312 312 312 313 312 312 313 314 314 316 315 314 312 309 307 306 304 304 302 301 301 300 299 297 296 296 295 294 293 293 292 291 290 289 289 289
313 313 312 312 312 311 312 312 312 313 314 316 314 314 315 319 318 317 315 313 311 308 306 304 303 303 302 301 300 299 298 296 295 295 294 293 292 292 291 290 289 288 288 288
310 310 311 311 310 311 311 312 316 317 317 317 314 314 319 317 316 316 315 313 310 307 305 304 303 302 301 300 298 297 295 295 294 294 292 291 291 290 289 289 288 287 287 287
308 309 310 312 312 311 311 312 316 314 314 312 311 312 320 315 314 314 314 312 309 307 306 304 301 299 298 298 297 295 293 294 294 293 292 290 289 289 288 287 287 286 287 287
309 309 310 310 310 309 309 311 310 312 313 315 313 316 317 315 312 311 312 310 309 307 305 302 299 297 296 296 295 293 291 291 292 291 290 289 288 287 287 286 286 285 285 285
307 310 309 310 310 309 310 310 313 315 315 315 315 315 322 320 318 311 309 309 307 306 305 301 298 295 292 293 293 291 287 288 290 290 288 286 287 286 286 285 284 283 283 283
307 308 309 309 309 309 310 312 312 312 315 317 318 319 317 320 319 314 311 306 304 304 296 300 296 292 292 292 292 292 288 284 285 288 288 285 284 285 285 285 284 283 281 282
308 309 315 311 311 311 310 310 310 315 314 317 319 321 319 318 318 317 312 307 303 300 296 293 292 290 290 290 289 289 289 287 285 283 286 287 285 285 284 285 284 283 282 281
309 312 309 311 312 310 309 309 310 314 313 314 318 320 317 315 315 314 314 310 306 301 295 292 291 289 289 289 286 287 287 288 288 286 285 286 288 287 285 285 286 284 283 282
307 306 310 315 312 308 308 308 309 313 318 317 317 316 316 315 315 315 315 312 307 301 296 293 292 289 288 288 287 285 286 288 288 288 287 286 287 287 286 286 286 286 284 283
307 309 308 307 307 308 309 309 310 311 312 315 315 312 312 312 314 316 316 312 307 302 299 295 292 290 288 288 289 289 288 287 287 287 287 287 286 286 286 285 285 284 284 283
308 314 310 309 308 308 310 311 312 309 309 309 310 311 311 311 312 314 315 310 307 303 300 296 294 290 289 290 290 289 289 288 288 287 287 286 286 286 285 285 284 284 283 282
309 312 312 313 310 310 312 311 312 309 309 309 310 311 311 312 314 313 313 309 306 303 300 297 294 292 291 290 289 289 289 288 287 287 287 286 286 286 285 284 283 283 282 281
308 309 311 313 311 313 311 308 308 308 309 311 311 311 312 313 312 312 312 309 306 302 299 296 293 291 290 289 289 289 288 288 287 286 286 286 285 285 284 284 283 282 281 280
309 311 312 312 312 310 308 307 307 312 314 312 311 312 312 310 309 308 308 307 304 301 298 294 292 291 290 289 289 289 288 287 286 285 285 284 284 284 284 283 283 283 282 281
309 311 312 312 313 311 308 312 311 310 313 310 310 311 311 309 313 310 306 304 302 299 295 292 291 291 290 289 289 288 287 286 285 285 284 284 283 283 283 282 282 282 282 282
312 312 314 314 311 309 308 312 312 312 313 311 309 309 309 311 312 306 303 301 299 297 295 293 291 291 290 289 289 288 287 285 285 284 284 283 283 283 283 283 283 283 282 282
314 313 313 312 311 312 309 311 312 313 311 310 309 309 310 307 305 303 301 298 298 296 294 292 291 291 290 290 289 288 287 286 285 285 284 283 283 283 282 283 283 283 283 283
314 312 312 311 312 313 312 312 311 310 310 310 309 308 307 305 303 300 298 298 297 295 293 292 291 291 290 289 289 288 287 286 286 285 285 284 283 283 283 283 283 283 283 282
311 312 313 314 313 312 312 311 309 309 309 309 308 307 306 304 302 299 298 298 297 294 293 292 291 290 290 289 289 289 287 286 286 285 284 284 283 283 283 282 281 280 280 281
313 312 313 314 312 311 311 310 310 308 308 307 306 306 305 304 302 299 299 298 295 294 293 292 291 290 289 289 288 288 286 286 286 285 285 284 282 283 281 280 280 278 275 276
310 311 314 316 312 312 312 310 310 309 307 306 305 305 304 303 301 300 299 297 295 294 292 291 291 290 289 288 288 287 286 286 286 285 284 284 283 283 283 280 278 276 275 274